GFSSE_sfc_thetae_015.txt.gz
Theta_e
339 346 348 349 349 348 347 347 347 348 348 347 346 345 344 344 344 342 341 339 338 336 335 335 334 334 333 332 333 334 334 335 337 336 339 341 341 342 341 343 341 338 342
342 345 346 347 347 347 348 348 347 348 347 346 345 345 343 342 342 341 339 338 337 335 335 333 332 332 332 332 333 334 334 337 337 337 338 341 341 340 341 343 343 340 343
341 344 345 345 347 347 348 349 348 347 346 344 343 343 342 340 338 339 338 338 338 335 334 335 335 335 334 334 335 335 336 337 337 338 339 336 334 340 341 340 341 341 342
341 342 343 345 346 346 347 347 346 345 343 343 342 341 340 338 337 339 339 338 339 336 336 336 335 335 334 334 336 336 336 336 337 335 329 330 334 339 339 339 338 337 338
338 341 343 344 344 345 346 346 345 344 343 342 340 339 338 336 336 337 339 338 338 336 335 335 335 334 334 336 335 336 335 334 333 327 324 328 331 336 337 336 335 335 337
340 341 340 341 342 344 344 345 344 342 340 339 338 337 335 335 336 336 338 337 335 335 334 335 334 334 336 335 335 335 334 333 327 316 323 331 330 338 337 336 338 336 335
336 337 337 338 340 342 343 344 342 341 340 338 337 336 336 336 335 336 337 337 335 334 334 334 334 336 335 335 335 334 332 331 319 317 321 325 328 335 334 336 336 336 335
335 336 338 340 340 339 340 341 340 339 339 337 337 337 336 337 337 338 338 338 337 336 337 336 336 335 335 335 334 333 331 331 320 318 322 325 335 334 333 333 337 336 336
334 332 335 338 335 338 337 337 337 338 337 335 336 336 336 336 337 338 338 338 337 336 335 335 334 333 334 333 332 332 331 330 315 318 323 325 336 334 333 333 334 336 336
330 330 332 335 336 336 336 335 335 335 334 333 334 333 333 334 336 336 335 336 335 333 333 334 332 331 331 331 331 331 331 323 311 314 319 324 333 331 332 332 333 333 334
329 328 331 331 334 333 334 335 335 335 333 333 333 332 330 328 329 332 332 334 333 331 331 332 331 330 330 328 330 330 326 312 310 312 317 328 331 328 330 330 330 330 330
325 327 326 331 333 334 334 331 329 330 329 327 327 328 327 327 326 329 331 332 333 331 331 330 330 330 327 315 315 320 312 310 309 312 317 327 328 325 327 326 326 325 324
328 330 329 332 334 331 329 329 326 325 326 328 327 327 328 329 328 327 325 325 325 328 324 324 319 317 313 312 311 311 310 308 307 308 319 323 325 321 322 322 322 323 322
328 330 331 333 333 327 330 327 323 324 328 328 328 329 329 326 324 322 321 321 320 321 316 315 315 313 310 310 309 309 308 306 307 307 316 321 323 318 318 319 320 320 320
329 330 328 326 325 323 325 329 328 328 329 331 330 330 328 324 321 321 319 318 315 313 312 311 311 309 308 309 308 309 308 307 307 307 309 320 320 319 317 319 319 318 317
325 324 324 324 325 329 325 325 322 324 324 327 329 328 326 324 322 317 314 314 311 311 310 309 307 306 306 306 306 307 306 305 304 304 305 307 319 320 318 317 314 314 313
324 324 322 324 327 325 324 323 320 322 324 324 320 320 320 318 315 312 313 311 309 309 307 307 306 307 306 307 305 306 305 303 303 302 303 304 311 317 317 313 311 310 311
322 321 322 331 326 323 320 319 321 321 317 317 315 314 314 314 313 312 310 309 309 309 308 307 306 305 305 304 303 302 301 301 301 300 301 301 302 309 314 315 313 310 309
321 321 326 325 321 319 320 322 320 314 313 313 313 311 311 312 312 311 310 309 308 307 307 307 305 304 303 302 301 298 298 298 298 301 297 297 299 300 304 312 311 310 305
323 324 326 323 321 322 322 318 317 313 312 311 309 310 310 310 310 309 309 308 308 306 305 304 303 303 303 300 301 298 296 296 296 295 295 297 296 296 298 298 298 300 305
323 326 325 323 321 323 318 315 312 310 308 308 309 309 309 309 309 307 306 305 305 303 303 303 302 299 298 298 294 293 294 294 294 293 294 293 294 295 296 295 297 296 296
322 325 324 324 322 324 320 314 313 311 308 308 308 308 309 308 307 307 304 303 303 302 301 300 298 297 297 296 292 291 288 290 292 293 291 292 290 292 294 295 294 293 292
321 323 324 323 322 322 318 314 310 309 308 307 306 306 306 302 299 298 299 298 297 298 299 298 298 297 294 295 294 291 286 284 286 289 289 289 289 289 290 291 292 292 291
323 325 326 324 318 316 313 310 308 305 304 304 302 299 297 298 298 297 298 297 296 297 295 297 300 297 295 291 292 294 290 288 283 282 286 287 288 289 288 289 290 291 291
326 325 324 317 314 312 310 309 307 305 301 298 297 296 295 296 297 298 298 296 297 297 297 297 296 295 294 292 291 289 288 287 285 283 280 283 286 287 288 288 288 289 290
324 319 315 312 310 309 308 305 301 299 296 295 294 294 294 295 296 297 297 297 297 297 297 296 295 295 293 292 293 291 288 285 284 283 281 281 282 285 286 287 287 288 288

GFSSE_sfc_thetae_018.txt.gz
Theta_e
342 347 348 349 348 348 347 347 347 346 346 346 345 344 343 341 341 340 339 338 339 336 334 333 334 334 335 335 335 335 335 335 336 339 343 343 341 342 340 341 341 338 342
343 346 346 347 347 348 348 348 347 346 346 345 344 343 342 340 340 339 338 339 339 336 336 336 335 335 335 334 335 336 336 336 337 340 342 341 340 342 340 340 342 338 340
343 345 344 345 346 348 349 348 346 345 344 342 341 342 340 338 339 339 339 339 339 337 336 335 334 334 334 334 336 337 339 340 339 340 340 331 332 340 339 339 340 339 339
342 342 342 345 346 348 347 346 344 343 342 341 340 338 339 338 338 340 339 339 339 336 335 334 334 334 334 335 337 336 337 336 336 335 328 331 332 337 337 335 334 333 335
338 340 342 344 345 347 346 344 343 343 342 341 340 338 338 338 337 338 339 339 338 335 334 334 334 334 335 336 336 334 334 332 331 328 326 329 330 334 336 335 334 332 331
338 340 341 342 345 345 345 343 342 341 340 339 338 339 338 337 337 339 338 338 335 335 334 334 334 334 335 335 335 334 333 330 325 320 323 330 329 336 335 335 334 332 334
337 338 338 339 340 341 343 342 341 340 338 337 337 338 338 338 337 339 338 338 336 335 334 334 334 336 335 335 335 333 332 328 318 320 322 325 328 333 333 333 333 332 332
335 336 337 339 338 338 339 340 339 338 337 336 336 338 338 338 338 338 338 338 337 337 336 335 334 334 333 333 334 332 329 326 319 319 322 324 335 333 333 333 334 336 335
332 334 331 331 334 335 334 336 337 336 335 336 336 336 336 336 337 337 338 337 336 335 333 333 332 332 332 332 332 331 324 325 315 318 324 323 336 333 332 333 334 334 334
329 330 327 327 329 333 334 335 335 335 334 334 335 335 334 335 336 336 335 335 335 332 331 331 331 331 331 332 331 329 321 320 311 313 317 322 332 330 330 331 330 329 329
329 329 326 328 332 332 333 333 334 334 333 333 333 333 330 328 329 330 331 332 332 330 330 329 330 331 326 327 328 323 318 308 310 312 315 328 329 326 327 327 326 325 325
321 324 328 328 332 332 332 330 328 329 327 326 326 326 325 325 325 328 330 331 331 330 330 328 329 324 317 311 312 316 307 306 307 312 314 326 327 322 323 323 324 323 322
320 322 324 328 331 331 328 326 325 324 324 324 324 325 326 326 325 323 321 321 321 322 316 315 312 311 310 307 308 308 306 305 305 306 314 322 324 318 319 321 322 322 321
323 323 324 328 332 329 327 324 322 323 325 326 327 327 325 323 320 318 319 318 314 312 311 310 309 309 307 308 308 307 306 305 304 305 310 319 320 316 318 320 321 320 318
326 327 326 329 331 326 325 322 323 326 328 328 328 328 324 320 318 316 312 311 310 310 309 307 306 305 305 306 306 305 304 303 302 302 303 316 319 319 318 320 318 316 315
327 328 328 328 323 325 325 325 324 326 327 327 326 324 323 320 315 313 311 309 308 307 307 306 305 305 304 304 305 304 303 301 300 300 300 300 315 321 320 317 314 313 313
327 326 321 322 325 323 321 319 321 326 323 320 321 321 321 319 314 312 309 308 308 307 306 306 305 304 304 304 303 303 301 300 299 298 298 301 304 316 317 313 311 310 311
324 321 322 328 323 321 318 318 320 318 317 314 313 313 313 312 312 309 308 306 306 307 306 305 304 303 303 302 299 297 298 298 298 297 296 297 297 304 309 312 311 309 308
322 319 324 322 319 317 318 319 316 313 311 311 310 310 310 310 311 309 307 305 306 305 305 304 303 302 301 299 299 296 297 295 295 296 295 295 295 296 298 307 305 305 303
319 322 324 320 318 319 320 314 311 309 310 309 308 308 308 307 310 307 306 305 304 303 302 301 299 299 299 298 299 296 293 294 293 292 292 294 293 294 295 294 294 298 304
318 323 322 318 319 320 316 312 308 307 306 306 306 307 307 307 306 305 303 303 302 301 300 300 298 297 296 295 292 292 292 292 291 291 291 290 291 292 292 292 292 292 292
321 324 321 319 320 319 316 312 310 308 305 305 306 306 306 305 304 302 301 298 298 299 298 298 297 295 295 294 291 289 286 289 290 290 289 290 287 289 291 291 291 291 290
321 323 322 320 319 321 315 311 307 306 305 304 303 304 299 298 297 298 297 296 295 295 294 294 296 295 293 292 291 290 285 283 284 287 287 287 287 288 288 288 290 290 290
322 324 323 322 320 321 315 311 308 306 304 303 301 297 295 297 297 297 297 296 296 296 294 295 297 294 292 290 290 292 289 288 282 280 285 285 287 288 287 287 288 288 289
322 321 322 321 318 317 312 313 308 303 302 298 295 294 294 295 296 297 296 296 295 297 296 295 294 293 292 290 289 288 287 285 284 282 279 282 284 285 286 286 286 287 288
321 322 321 315 313 313 309 306 306 300 297 294 293 292 293 294 295 295 296 295 295 296 295 294 294 293 292 291 290 289 287 285 283 282 280 280 280 283 285 285 285 286 287

GFSSE_sfc_thetae_021.txt.gz
Theta_e
340 345 347 347 347 347 347 346 345 344 344 344 343 341 341 338 339 340 340 338 338 337 336 336 335 335 336 337 337 337 336 337 341 343 343 341 341 340 340 340 340 336 340
342 344 345 346 346 348 347 346 345 345 344 343 342 341 340 339 340 340 339 339 340 336 336 336 336 335 335 337 339 339 337 338 341 341 339 341 340 339 339 338 340 336 339
341 343 343 344 346 348 348 346 345 344 343 340 339 340 339 339 340 340 340 340 339 338 335 335 335 334 334 336 340 342 340 341 341 339 336 329 330 337 336 334 334 333 336
343 343 341 345 346 347 346 345 343 342 340 340 338 337 339 338 339 340 340 339 339 337 335 335 335 334 334 336 337 337 338 336 336 334 329 329 330 336 336 334 332 331 331
341 341 342 345 345 346 344 343 342 342 341 340 339 338 337 338 337 339 340 339 338 335 335 335 335 334 335 334 335 335 334 334 333 329 327 328 327 331 334 333 331 331 330
339 340 340 343 344 344 343 343 342 341 339 338 339 340 339 339 337 339 339 338 336 335 334 334 334 336 335 333 334 333 332 329 326 321 322 327 326 334 333 332 332 332 332
335 337 339 340 342 342 343 342 341 340 339 338 339 340 340 340 338 339 338 338 337 335 334 333 334 335 334 332 332 331 330 327 319 319 321 324 327 333 333 333 334 333 333
332 332 336 339 339 338 340 340 338 338 337 338 339 339 340 339 338 338 338 338 337 336 335 334 333 334 335 332 329 330 328 325 319 319 322 323 334 333 333 334 334 333 333
327 327 327 330 330 332 335 336 336 336 336 337 337 337 337 337 337 337 337 337 336 335 333 332 332 333 334 331 327 327 325 324 314 317 322 322 334 330 331 331 331 330 331
325 326 325 326 330 331 332 334 334 333 334 336 336 335 335 335 336 335 335 335 333 332 332 332 332 331 333 329 325 324 324 319 310 313 316 322 331 327 328 327 326 326 327
322 323 323 324 325 329 332 333 334 334 334 334 333 333 330 328 328 327 331 331 330 329 330 332 329 326 324 326 324 321 315 309 309 311 314 326 328 325 325 325 324 324 323
320 321 322 322 325 330 332 329 327 327 327 326 327 326 325 324 325 327 329 330 330 329 328 326 323 320 314 309 308 311 304 305 306 310 311 323 324 320 322 323 323 322 322
322 323 324 326 329 330 327 326 324 323 323 323 324 322 323 324 323 321 319 319 316 318 311 311 310 308 307 307 306 305 304 303 302 305 312 322 321 318 320 322 322 321 320
320 324 325 326 328 328 325 323 322 321 322 323 323 325 323 320 317 317 315 312 310 309 308 307 307 306 305 306 305 304 302 301 300 301 305 318 319 318 317 320 321 319 317
319 321 323 325 328 327 323 321 320 322 325 325 325 325 322 318 314 311 309 309 308 307 306 305 304 304 304 304 304 303 301 299 299 299 299 312 318 319 316 319 318 315 315
324 322 323 324 328 324 322 320 321 325 326 326 324 323 320 316 312 310 308 307 306 306 305 304 303 303 303 303 302 301 300 298 297 296 297 300 317 320 319 317 314 313 313
325 326 325 325 324 323 322 321 322 325 324 322 321 321 319 315 312 309 307 306 306 305 304 304 303 303 302 303 299 299 298 296 296 295 295 296 301 313 313 313 311 312 312
326 323 322 327 322 321 318 319 321 320 318 317 318 316 314 312 310 307 305 304 305 305 304 303 302 302 301 299 295 296 295 296 294 294 294 294 296 299 306 308 308 307 306
324 319 322 322 319 317 318 318 317 317 312 311 310 310 311 310 309 306 305 305 304 303 302 302 301 300 298 297 296 294 293 292 292 294 292 293 293 293 293 300 304 305 304
321 319 322 320 317 317 316 312 311 309 308 308 308 307 307 309 308 306 304 303 303 301 300 299 296 296 296 295 296 293 291 291 291 290 290 292 291 291 291 291 292 293 302
316 321 320 317 316 318 312 308 307 306 305 305 305 306 306 306 305 303 302 301 300 299 298 298 296 295 294 293 292 291 290 290 289 288 289 288 289 290 290 290 290 289 291
317 321 318 318 317 317 313 309 308 306 304 303 304 304 304 304 303 302 298 296 296 295 295 295 295 294 294 292 290 288 286 288 288 288 287 288 286 288 288 289 289 289 288
317 321 319 318 319 317 313 308 305 304 304 302 302 301 298 299 297 296 296 295 295 294 293 292 294 294 291 290 290 289 284 283 284 286 286 286 286 287 287 287 288 288 289
317 321 322 319 319 317 312 308 307 306 303 302 301 295 294 296 296 296 296 295 295 295 294 295 296 293 291 289 290 291 287 286 282 281 284 284 286 287 285 286 286 287 288
318 321 322 319 319 319 313 311 307 305 304 299 295 293 293 295 295 295 296 295 296 297 296 295 293 292 292 290 289 288 286 285 283 281 279 281 284 285 285 285 285 285 287
319 320 320 318 318 317 314 312 308 306 301 295 292 292 292 293 293 295 295 295 296 296 297 296 293 292 291 290 289 288 286 284 283 281 279 280 280 283 285 285 285 285 285

GFSSE_sfc_thetae_024.txt.gz
Theta_e
340 345 346 347 347 346 345 344 344 344 344 343 342 341 340 339 341 340 339 340 340 340 337 338 338 339 340 340 338 338 341 342 343 343 342 340 340 341 340 339 339 336 340
342 344 345 346 346 346 345 344 344 344 343 342 341 340 340 341 340 340 341 340 340 340 337 337 339 340 342 341 339 340 341 341 340 339 338 338 337 336 335 333 337 334 338
341 343 343 345 346 346 346 345 344 343 342 340 340 340 340 341 341 341 340 340 340 340 336 336 338 341 342 341 342 342 340 339 338 338 335 329 330 335 334 332 333 331 332
342 341 341 345 345 345 344 344 343 342 341 340 340 340 341 340 340 341 339 339 340 340 335 335 335 337 337 339 340 339 338 337 336 334 328 328 328 333 332 331 330 331 331
341 340 342 345 344 345 343 342 341 341 340 340 339 339 340 339 339 340 339 339 340 340 335 335 333 334 335 336 336 336 334 333 331 327 326 327 326 330 332 332 331 332 331
340 339 341 342 343 343 343 342 342 340 338 338 339 340 340 339 338 340 339 339 339 338 335 334 331 333 335 333 333 333 331 330 327 322 324 327 326 333 333 333 333 333 333
335 336 339 339 341 342 343 342 341 339 338 339 340 340 340 340 340 340 339 339 338 337 337 335 335 333 334 333 333 332 330 328 319 320 323 326 329 332 333 334 333 333 332
327 329 335 338 339 339 341 340 338 338 339 340 340 340 340 339 339 339 338 338 336 336 335 336 335 333 332 333 331 329 327 325 321 320 322 324 332 332 332 332 332 331 331
328 328 328 329 331 335 336 336 336 337 338 339 339 338 338 338 337 337 337 336 336 335 334 335 336 333 331 331 330 327 325 323 314 317 322 323 332 329 328 328 328 329 329
325 326 325 325 326 328 331 334 334 335 336 337 337 336 335 335 336 335 335 334 334 333 333 333 334 331 329 328 327 324 321 317 311 314 317 322 330 326 326 325 325 324 324
322 322 323 324 324 325 331 332 333 335 335 334 334 333 329 327 327 324 330 331 331 330 331 330 328 327 326 324 321 318 314 308 309 311 312 326 327 325 325 324 323 323 322
319 320 322 321 321 322 332 329 325 328 327 327 327 325 325 325 323 326 328 331 330 329 327 325 322 319 312 306 306 309 304 304 305 309 311 325 323 321 324 323 323 322 322
320 320 322 321 322 322 329 325 323 323 323 324 324 322 323 324 322 319 317 315 312 315 309 309 308 307 306 306 304 302 302 301 301 303 313 321 321 320 320 323 322 320 319
317 318 320 322 326 327 325 322 321 320 321 321 321 322 322 319 316 313 311 310 308 307 306 306 305 305 305 305 303 301 300 299 299 300 304 318 320 319 317 322 321 319 317
319 319 322 324 326 326 323 320 319 319 320 320 322 324 320 316 313 309 308 307 306 306 305 304 304 303 303 303 301 300 298 298 297 298 300 319 321 320 318 321 318 317 315
322 322 322 322 326 325 320 318 318 320 323 324 323 321 318 313 309 307 306 306 305 305 304 303 303 302 302 301 300 299 297 296 295 296 297 304 315 317 317 316 315 314 314
320 319 320 322 325 323 320 318 320 324 324 322 321 319 316 312 310 306 306 305 304 304 303 303 303 302 301 299 297 297 296 295 295 295 295 297 302 311 314 313 313 313 312
321 322 322 325 323 321 319 318 320 321 320 319 318 317 313 311 308 306 305 305 304 304 303 302 302 301 298 296 294 294 294 294 293 294 295 295 295 295 301 307 307 306 305
323 322 320 322 320 319 317 318 319 318 316 315 313 312 311 309 308 305 304 304 303 302 301 302 300 300 296 296 295 293 292 291 292 293 292 292 293 292 293 301 302 304 304
322 320 321 320 318 317 316 313 312 310 309 309 309 309 310 308 306 305 304 303 302 300 299 297 296 296 296 295 295 292 290 290 290 290 290 292 291 291 291 292 292 293 300
319 318 319 317 315 317 313 309 309 308 307 305 306 306 308 306 305 303 301 300 299 298 298 297 295 294 293 292 291 290 290 290 289 289 289 289 290 290 291 291 290 290 291
318 319 318 317 316 316 315 308 308 306 304 303 304 304 305 303 302 301 298 297 297 295 294 295 295 294 292 291 290 289 287 289 289 288 288 289 288 289 290 291 290 290 290
317 318 319 317 317 316 312 306 304 304 303 302 301 300 299 299 297 295 295 294 294 293 292 293 294 294 291 291 290 290 286 284 285 287 287 287 287 288 288 289 289 289 290
317 319 320 318 317 316 310 307 306 305 302 301 300 296 294 296 295 295 295 295 295 294 295 296 296 294 293 290 290 290 288 287 285 283 285 286 286 288 287 288 287 288 289
317 318 319 317 317 316 311 309 306 304 302 300 296 292 294 294 295 295 295 296 295 295 295 295 294 292 292 290 289 289 287 286 285 282 281 283 285 286 286 287 287 287 288
315 316 318 316 317 316 313 310 307 306 301 298 294 293 292 292 293 294 295 295 296 296 297 296 295 292 291 291 290 291 288 286 284 282 280 281 281 284 285 287 286 286 286

GFSSE_sfc_thetae_027.txt.gz
Theta_e
340 342 346 348 347 346 346 346 345 345 344 344 342 342 342 342 341 341 342 341 341 342 340 341 341 341 340 343 341 339 341 342 342 342 341 339 337 337 336 337 338 337 340
343 343 345 346 346 346 346 345 344 344 343 343 342 342 342 341 342 342 342 341 341 341 342 342 343 341 342 342 342 341 339 340 340 339 339 337 335 335 334 333 336 332 335
342 342 345 345 346 345 345 345 344 343 343 342 342 342 342 342 342 341 341 341 341 342 343 344 343 342 342 342 342 340 338 338 338 337 337 330 331 333 332 332 333 332 332
342 342 342 345 344 345 344 344 343 343 342 342 342 342 343 342 342 341 341 340 340 340 340 341 343 343 342 340 340 339 337 336 335 335 329 327 327 332 332 332 332 332 331
342 341 343 344 343 344 343 342 341 341 341 341 341 342 343 342 342 341 340 340 340 340 337 338 338 338 337 338 337 336 334 333 333 330 329 330 330 332 334 333 332 333 333
341 342 342 341 342 343 343 342 341 340 339 339 340 341 342 342 341 341 340 340 340 338 333 335 336 335 336 335 335 334 332 331 331 328 329 332 331 333 334 334 333 333 333
339 342 341 339 340 342 343 342 340 339 339 339 340 341 341 341 341 340 339 339 339 338 336 334 335 335 334 335 333 331 329 329 326 326 327 329 331 332 332 332 332 332 332
334 336 337 338 337 337 340 339 338 339 340 340 340 340 341 340 340 339 338 337 337 338 338 334 335 335 334 333 330 329 328 328 324 325 326 326 331 329 329 330 330 330 330
331 330 329 331 330 331 334 336 337 339 339 339 339 339 339 338 338 337 337 336 336 336 337 334 333 334 333 329 327 326 325 324 325 324 324 324 330 327 326 326 326 327 327
328 327 324 324 325 328 332 334 336 337 337 338 338 337 335 336 336 336 335 335 335 334 336 333 331 331 328 325 323 321 321 322 321 320 323 325 329 325 325 325 324 324 324
324 323 321 323 326 328 332 334 336 337 336 335 335 334 331 331 331 330 331 332 333 331 331 331 327 324 323 322 319 317 318 317 319 319 320 327 326 325 324 324 324 323 323
320 320 323 321 320 322 329 329 331 332 331 331 331 331 330 331 330 329 331 332 330 327 325 324 320 318 317 314 313 314 313 315 317 318 320 325 323 323 325 323 323 322 322
318 318 319 319 320 319 320 325 328 329 329 329 330 330 331 330 329 328 324 320 320 318 315 316 315 314 314 313 311 311 311 311 311 312 317 322 321 320 325 324 321 320 319
319 319 319 320 320 322 323 328 326 326 327 328 328 330 330 327 323 320 318 317 317 316 316 316 315 315 313 312 311 310 310 310 310 312 318 323 322 318 321 324 320 318 318
319 320 320 323 323 328 328 327 326 326 326 328 328 331 329 325 321 318 317 316 315 315 315 315 314 313 312 311 309 308 307 307 309 311 317 319 322 321 322 321 319 317 315
319 321 322 325 328 331 330 327 325 327 327 328 329 330 327 323 318 316 316 315 315 315 315 314 314 312 310 309 307 306 305 305 307 311 314 316 316 318 318 317 315 316 315
321 322 324 326 330 332 329 326 326 326 329 329 329 327 325 320 319 317 315 315 314 315 314 314 313 312 309 307 305 304 304 304 305 307 311 312 311 311 314 314 312 310 309
323 323 325 326 328 332 329 326 326 328 331 330 329 326 322 319 318 317 315 315 314 314 314 314 313 310 308 307 305 304 303 303 304 304 305 306 305 306 307 307 307 307 306
326 325 325 327 328 330 329 326 328 330 330 329 327 324 320 317 316 317 316 314 315 313 313 312 311 311 307 305 303 302 302 301 301 301 301 301 301 302 302 302 303 304 303
326 327 327 327 328 330 327 325 326 326 325 325 325 322 319 317 315 316 314 313 312 311 310 309 308 308 308 306 301 300 300 301 300 301 300 299 300 300 300 300 301 300 300
326 326 326 326 328 327 323 322 323 324 322 322 322 321 319 316 314 315 312 311 311 310 309 308 307 305 304 305 302 300 299 299 299 299 300 300 298 299 300 299 300 299 299
326 327 327 327 327 326 326 324 324 322 318 319 316 317 317 314 313 312 311 310 309 308 308 307 307 304 303 303 302 301 297 297 298 297 298 298 299 299 298 298 298 298 299
325 326 327 327 326 326 325 318 314 315 313 312 312 312 312 312 311 309 309 308 306 305 303 305 306 305 300 300 301 301 296 295 297 298 296 297 297 298 298 298 297 296 298
325 327 327 326 325 324 321 319 317 319 315 314 312 311 309 308 306 304 304 305 304 304 304 305 305 304 303 299 300 299 300 299 294 292 296 297 297 296 297 297 297 297 297
325 326 327 326 325 324 320 320 319 317 318 313 308 303 303 304 304 303 304 305 304 305 305 304 302 303 303 299 300 299 299 297 297 293 289 292 295 296 297 296 296 296 295
325 326 327 325 324 324 320 318 318 315 312 309 306 304 302 302 302 303 303 304 305 305 302 301 302 301 299 301 300 299 297 295 294 293 291 291 291 294 295 296 296 295 295

GFSSE_sfc_thetae_030.txt.gz
Theta_e
339 343 347 348 349 349 348 347 347 346 345 344 344 344 344 343 343 343 343 343 344 344 342 342 342 344 340 339 342 341 341 342 341 341 340 337 335 335 335 338 338 337 340
342 342 345 346 348 348 347 346 345 344 344 343 344 343 343 343 343 343 343 343 344 344 343 342 344 342 338 338 339 339 338 339 339 340 339 336 334 334 334 334 336 333 336
341 341 346 345 346 346 347 346 344 344 343 344 343 343 343 344 343 343 342 343 346 347 344 343 343 341 338 338 339 339 337 337 338 336 337 327 330 333 333 333 335 333 333
341 341 340 345 345 345 344 344 343 343 344 343 343 343 343 343 343 342 342 342 346 347 345 343 342 340 338 339 340 338 336 335 336 336 328 328 328 333 334 334 334 334 333
341 340 343 343 344 344 343 343 342 342 342 342 343 344 344 343 343 342 342 340 343 345 343 343 340 338 338 338 337 336 334 334 334 330 329 330 330 332 334 334 334 334 333
342 341 342 342 343 343 343 342 341 341 341 341 342 343 343 343 343 342 341 340 341 341 339 339 335 336 336 336 336 333 333 333 331 327 329 331 330 332 333 333 333 333 333
341 342 343 340 342 342 342 341 341 340 340 341 341 341 342 343 342 342 340 340 338 339 338 336 335 336 336 335 332 331 331 330 325 325 327 328 330 330 330 331 331 331 331
340 341 340 340 339 339 339 339 339 339 340 340 340 341 342 341 340 340 339 339 339 336 337 337 336 335 333 330 329 328 328 329 324 323 325 327 330 328 328 328 328 328 328
337 334 333 330 330 333 336 337 338 339 339 340 340 340 339 338 337 337 337 338 338 336 335 336 335 332 329 327 326 325 325 326 323 323 322 325 327 326 325 325 325 326 325
328 329 328 327 327 328 333 336 337 338 338 339 339 337 336 335 336 336 335 336 338 335 333 333 332 329 326 324 323 322 323 325 320 320 322 326 327 325 324 324 324 324 324
322 323 323 323 326 328 329 335 337 338 337 336 335 334 330 327 328 330 332 334 335 332 331 328 326 325 324 320 319 320 321 319 319 319 320 327 327 325 324 324 324 323 323
318 319 320 322 322 324 328 331 335 335 333 332 331 330 329 332 330 329 332 331 330 328 326 324 322 321 322 319 317 320 317 318 318 318 319 324 324 326 324 324 323 322 321
319 319 320 320 320 321 320 326 329 329 330 331 331 329 331 331 331 331 331 328 326 324 319 319 320 320 320 319 318 317 317 316 315 315 318 323 322 321 325 323 321 320 319
317 317 319 318 319 318 318 321 324 324 327 328 329 330 331 329 330 329 328 327 324 322 321 320 321 321 319 318 318 317 316 315 313 315 319 322 323 319 326 322 320 319 317
316 317 317 318 315 318 320 321 324 326 325 326 328 329 329 328 329 328 326 324 323 323 322 321 320 318 317 317 316 315 313 313 313 313 316 319 321 322 323 321 320 317 315
318 317 319 320 321 322 324 327 325 327 327 328 331 333 333 329 329 325 324 323 321 323 322 321 319 318 317 316 314 313 311 311 312 312 313 316 316 318 317 317 317 317 315
322 320 320 324 327 325 329 331 325 327 327 329 333 336 334 329 327 326 324 323 322 322 321 320 319 317 316 314 311 311 311 311 310 311 313 312 314 312 312 312 311 309 308
325 325 325 327 329 330 332 330 326 327 329 331 334 335 333 329 327 326 324 323 322 321 319 319 318 316 315 314 312 311 312 311 311 310 311 312 312 311 308 307 307 306 306
324 324 325 328 329 332 334 330 328 330 332 335 336 334 332 328 326 326 323 322 322 319 319 318 317 317 312 312 311 309 309 308 308 307 307 308 307 308 307 302 303 303 303
326 328 328 329 332 334 334 330 327 331 334 336 335 333 330 327 325 325 323 322 320 318 317 317 314 313 313 312 305 306 307 307 307 307 306 305 307 307 306 304 305 303 300
329 328 328 328 331 333 331 326 325 328 332 333 334 332 329 327 324 324 322 320 319 317 317 315 312 309 309 311 307 307 306 306 305 305 305 305 304 304 305 304 303 302 302
327 329 329 330 331 332 330 327 327 329 331 333 332 331 329 326 324 323 321 319 318 316 315 313 310 308 309 309 307 306 305 305 304 303 304 303 304 303 302 301 301 300 300
326 327 328 330 331 332 331 328 330 331 329 328 326 327 327 325 323 321 320 318 317 315 311 311 310 307 306 307 308 304 303 300 303 304 303 302 302 302 302 301 300 300 299
328 329 330 330 331 332 333 329 327 326 325 327 326 327 325 323 321 319 318 317 315 311 309 309 308 309 308 305 305 305 306 302 297 296 301 301 302 300 301 301 300 300 300
330 329 332 332 331 332 332 330 328 328 329 330 325 324 321 319 317 316 315 313 311 309 309 308 309 308 309 307 305 306 303 302 301 297 295 297 299 300 300 300 300 299 299
331 331 332 332 331 331 332 331 330 329 329 325 321 317 315 310 311 311 311 311 310 309 308 309 307 307 308 306 306 303 300 299 299 297 295 296 295 298 299 299 299 299 299

GFSSE_sfc_thetae_033.txt.gz
Theta_e
340 345 349 351 350 350 349 348 347 346 345 344 344 345 345 344 344 345 345 345 345 345 344 345 340 340 341 340 341 340 340 341 340 340 339 337 335 336 336 338 337 336 339
343 346 347 349 350 350 349 347 346 344 344 345 345 344 344 344 344 345 345 345 346 346 345 342 339 338 338 338 339 339 338 338 340 339 337 336 335 334 335 334 336 334 336
341 345 348 347 348 348 347 346 345 344 345 345 344 344 344 344 345 345 345 345 346 346 344 340 338 338 337 337 338 337 336 336 336 337 339 327 330 335 335 335 336 333 333
340 344 348 346 346 346 345 344 343 344 344 343 344 345 344 345 344 345 347 346 346 347 343 339 338 338 337 337 338 336 336 335 334 337 329 328 328 335 335 334 334 334 333
339 342 346 344 344 344 343 343 342 343 342 343 344 345 344 344 344 344 345 346 346 347 342 339 338 337 336 337 337 335 334 335 334 331 328 329 329 332 334 333 334 334 333
336 340 342 342 343 343 343 342 343 341 341 342 343 344 344 344 344 342 342 344 346 345 338 337 336 335 336 336 335 333 332 333 334 327 328 329 328 331 332 333 332 333 332
335 343 343 340 341 342 342 342 342 341 342 342 342 342 343 343 343 341 340 341 342 341 338 335 334 335 335 333 331 331 332 331 324 326 326 326 327 329 329 329 329 328 328
341 341 340 342 341 341 341 340 340 340 341 341 341 342 343 342 341 341 339 339 340 339 338 337 335 334 332 330 329 329 329 330 324 324 326 325 329 327 327 327 327 327 326
335 334 335 337 339 338 337 338 338 339 340 340 340 340 339 338 338 338 338 337 338 337 336 335 333 332 328 327 328 326 325 327 322 322 324 324 327 325 325 326 326 325 325
331 329 328 330 333 338 337 337 338 338 339 339 338 336 335 336 336 337 337 336 336 336 335 332 331 329 326 325 324 325 323 327 320 321 322 325 327 325 325 324 325 324 324
325 325 326 326 328 331 334 337 338 339 337 335 334 332 329 329 329 330 334 335 334 333 332 330 328 326 325 322 321 320 323 319 318 319 319 328 326 325 325 324 324 323 323
318 321 324 325 322 321 322 323 325 327 330 330 328 331 328 332 332 328 331 332 330 329 328 327 326 325 324 319 318 321 317 317 316 318 318 326 325 326 325 324 323 322 321
319 320 320 319 318 317 318 320 326 328 330 331 333 332 333 332 330 331 328 327 325 324 318 318 319 323 323 320 319 319 317 316 314 317 318 324 322 325 325 324 322 321 319
318 319 319 321 320 319 321 323 326 327 329 328 329 331 333 331 333 332 329 327 327 324 324 324 323 323 320 319 318 317 316 314 313 317 318 322 322 319 326 323 321 320 318
315 315 316 316 317 319 320 321 323 323 324 325 328 330 329 330 332 329 330 328 326 326 324 324 322 320 319 318 317 315 313 314 313 313 317 319 322 323 324 322 320 319 316
315 314 314 314 316 316 318 318 322 326 325 327 329 329 329 329 332 328 328 326 326 326 325 323 321 319 318 317 315 313 312 312 312 313 314 316 318 320 319 319 319 317 315
314 316 314 315 316 319 319 319 319 323 326 326 326 335 332 329 332 330 328 326 326 326 325 322 320 319 317 315 312 312 312 311 311 312 312 314 314 315 314 313 312 310 309
317 315 315 316 321 321 323 325 326 326 326 325 329 334 334 332 332 330 327 327 326 325 323 320 319 317 315 314 313 312 312 311 311 310 311 311 312 312 309 309 307 307 306
320 319 321 325 323 326 329 328 326 328 327 328 334 336 334 332 331 330 328 327 326 324 322 320 318 317 313 312 311 312 312 311 310 308 308 309 308 307 308 305 305 303 302
324 324 326 327 327 328 330 330 326 324 327 330 334 333 335 332 330 330 328 326 325 322 320 319 318 314 313 312 308 307 310 310 310 309 308 307 307 307 306 306 305 303 302
325 325 325 325 327 329 328 326 323 321 326 331 334 334 334 332 330 329 327 326 324 321 320 319 315 313 310 311 310 311 310 310 309 308 308 307 306 305 306 304 303 303 301
325 326 326 326 328 329 327 327 324 324 326 330 336 334 334 332 329 328 327 324 323 320 320 318 314 311 310 311 310 310 307 307 307 307 307 306 306 305 304 303 303 302 301
326 326 327 328 329 330 330 328 324 325 328 328 330 331 332 332 329 327 327 325 323 321 318 317 314 311 308 310 311 308 305 303 305 307 306 305 305 304 304 303 303 302 301
326 329 329 329 329 330 331 327 324 323 323 327 329 331 330 331 329 327 326 325 322 320 318 315 313 311 310 308 312 309 310 307 300 299 304 304 304 303 304 303 302 302 302
327 327 329 329 329 330 331 330 327 326 327 328 329 330 329 330 328 326 325 324 321 318 317 315 312 310 311 308 308 306 308 306 304 299 297 300 303 302 302 302 302 301 301
328 330 331 329 328 330 331 331 332 329 328 327 330 327 327 326 323 324 321 320 317 313 312 312 311 309 308 309 307 308 305 302 301 301 299 299 298 300 301 301 301 300 300

GFSSE_sfc_thetae_039.txt.gz
Theta_e
337 347 348 350 350 349 348 346 345 345 345 345 344 346 347 348 347 347 347 344 345 344 341 339 339 339 339 339 338 340 340 339 338 339 339 338 336 336 336 336 337 334 339
332 346 347 349 349 349 347 345 344 344 345 344 345 346 347 347 346 347 345 344 344 343 339 337 337 339 340 339 340 341 339 339 337 338 337 335 336 337 335 335 336 332 336
330 333 346 347 348 348 346 345 345 345 345 345 346 346 346 347 346 347 344 342 342 342 337 335 335 336 336 336 339 339 339 338 337 336 335 329 328 335 336 335 335 333 333
328 331 344 347 347 346 345 344 345 345 344 345 345 346 346 346 346 346 342 342 342 341 336 334 334 335 335 336 336 336 336 335 334 332 325 326 330 335 335 335 335 334 333
335 342 345 345 345 345 344 344 343 343 344 344 345 346 346 347 347 346 342 341 342 340 335 333 334 334 334 334 333 333 335 333 331 327 322 323 326 331 333 333 333 333 332
337 341 342 343 343 344 344 343 343 343 342 343 344 346 348 348 347 345 342 342 342 338 333 332 332 331 333 332 332 333 332 330 327 321 320 325 323 330 330 329 329 329 329
335 340 341 340 341 343 344 343 343 342 342 342 344 346 346 346 346 344 342 341 340 337 334 332 331 332 331 330 331 331 331 328 321 319 318 319 322 328 329 328 327 327 326
333 334 334 342 342 341 341 341 341 341 341 341 342 343 345 345 344 342 340 340 338 338 336 334 333 331 329 329 329 329 330 327 321 319 318 318 328 327 327 327 326 325 325
334 336 334 339 340 337 335 339 339 340 340 341 340 340 340 340 341 340 340 339 338 336 334 333 331 329 327 326 326 326 326 326 318 319 320 318 328 327 327 326 325 324 323
331 332 333 334 335 336 336 337 338 338 338 337 337 336 336 338 339 338 337 337 336 334 333 331 329 327 324 323 322 322 324 324 317 317 319 321 327 326 326 325 324 323 322
329 330 331 331 332 331 333 336 337 338 336 335 334 332 327 327 329 331 335 335 334 331 330 330 327 325 323 321 321 323 319 315 317 317 319 328 327 326 326 324 323 322 321
324 326 327 328 328 329 331 330 331 330 327 326 325 325 325 326 327 331 332 332 331 330 329 328 326 324 319 309 311 316 309 311 315 316 319 328 327 326 325 324 323 321 320
321 319 321 322 322 322 324 327 326 326 325 324 325 326 327 327 326 325 324 324 324 325 320 321 319 313 314 311 309 307 307 309 309 314 321 326 327 326 326 324 322 320 320
314 315 316 317 318 319 318 319 322 324 326 326 327 326 324 325 323 322 320 318 315 315 311 312 314 313 311 311 310 307 306 308 309 312 318 323 326 326 326 324 322 320 318
313 315 315 315 315 315 317 319 320 322 323 324 326 325 326 325 322 322 321 316 316 316 312 315 313 313 311 310 308 306 306 306 309 311 313 323 325 327 325 325 323 320 317
315 315 317 316 316 316 317 318 321 321 321 323 323 324 326 325 324 322 323 319 318 318 318 315 314 312 310 308 305 305 305 304 309 310 312 315 323 325 324 324 321 319 316
314 315 316 316 317 316 317 319 321 321 320 318 316 324 325 325 324 325 322 320 320 318 318 316 313 311 308 308 305 305 304 304 304 308 311 311 314 320 321 322 319 317 314
312 313 315 317 317 317 317 320 321 317 315 314 314 322 323 322 323 323 321 321 320 319 315 312 310 308 306 304 303 303 304 303 303 304 309 309 308 310 315 317 315 313 312
311 312 312 315 316 316 317 319 319 315 313 314 315 321 324 325 324 324 322 322 320 317 315 313 311 309 306 304 303 302 302 302 302 304 302 307 306 305 305 313 313 312 308
311 312 313 315 315 314 315 315 316 313 316 318 320 325 326 327 326 324 323 322 318 316 315 312 310 308 305 304 306 303 301 302 302 300 300 302 301 304 302 302 302 302 308
310 311 313 312 311 313 310 311 311 311 316 318 320 327 327 326 327 323 321 319 318 316 314 311 310 304 302 302 301 300 300 301 301 300 300 299 300 299 299 298 297 296 300
309 310 310 311 311 314 313 312 312 317 315 318 318 325 327 327 326 324 321 317 316 315 314 311 307 303 302 301 299 300 298 299 300 301 300 300 298 298 299 298 297 296 295
310 310 310 311 317 315 316 315 318 318 314 315 317 322 326 323 320 324 321 318 316 316 313 310 306 305 301 302 302 301 297 295 296 299 301 299 297 297 298 298 297 297 296
313 315 316 317 320 319 319 319 319 319 316 315 316 323 323 324 323 324 322 320 318 316 314 311 310 307 305 301 303 306 303 302 295 293 299 299 297 297 296 297 296 297 296
315 316 318 320 321 320 320 321 320 318 317 316 319 323 324 324 325 324 321 319 317 316 314 313 310 307 308 306 304 303 304 304 302 298 293 295 296 297 297 297 296 295 296
318 318 319 320 321 321 322 322 321 319 314 313 314 322 323 324 324 323 322 321 318 310 309 309 309 308 307 307 305 304 304 303 301 299 294 292 294 296 296 296 295 294 294

GFSSE_sfc_thetae_045.txt.gz
Theta_e
341 345 346 347 348 347 346 345 345 345 346 346 346 348 347 347 346 345 344 343 342 344 341 340 339 338 338 338 338 338 337 339 338 337 337 336 338 338 338 338 338 335 339
342 344 344 343 346 346 346 345 345 346 347 348 348 347 346 346 345 344 343 342 343 343 341 340 339 339 338 337 337 336 335 336 337 337 336 334 335 336 336 335 336 334 337
341 343 343 344 345 344 344 345 346 347 347 348 347 346 346 345 344 342 341 342 343 343 340 340 340 339 338 339 337 337 336 336 336 335 333 328 326 333 333 333 332 332 334
341 339 341 343 343 342 342 342 345 347 347 348 346 346 345 344 343 341 340 341 343 343 340 339 338 338 338 337 337 336 334 333 332 330 325 327 330 334 334 332 331 330 329
332 339 338 342 340 339 339 340 345 345 345 346 345 345 344 344 342 340 338 340 342 340 337 334 332 332 337 338 335 334 333 331 329 323 319 323 325 329 331 331 328 327 327
329 332 338 340 340 339 338 338 344 344 343 345 344 344 344 343 342 340 338 339 341 338 333 331 334 335 336 334 334 332 330 328 324 317 318 324 321 329 328 327 326 326 326
330 330 335 338 339 339 337 338 343 343 343 343 343 342 342 342 341 338 337 338 338 335 331 334 338 336 334 333 331 330 329 326 317 315 316 318 321 328 328 326 325 324 324
330 334 335 338 338 337 334 335 340 342 342 342 342 342 342 340 339 338 337 336 335 333 332 333 335 334 333 331 330 329 328 326 319 316 317 318 326 327 327 325 324 323 323
332 336 335 335 336 334 329 329 335 341 340 340 341 340 340 338 337 337 335 334 332 331 330 330 330 332 332 331 329 327 326 324 314 316 318 318 326 326 325 324 324 323 322
330 330 331 331 332 331 331 331 335 339 340 340 341 339 337 337 336 335 333 332 331 330 330 329 329 331 332 329 328 326 326 322 314 315 317 321 327 326 325 323 322 322 321
328 327 328 330 330 323 324 327 334 339 340 339 338 337 333 332 330 326 331 331 330 328 328 327 326 329 329 328 327 326 321 315 315 315 317 328 326 326 323 322 321 321 320
323 323 326 325 325 323 323 326 330 335 335 334 334 330 328 326 325 326 327 329 329 328 327 326 324 322 318 316 321 321 314 315 315 316 319 328 327 326 325 322 320 319 319
324 322 323 324 324 323 324 326 326 325 326 328 328 327 325 326 325 324 321 320 319 321 314 312 312 310 307 308 309 311 312 313 314 316 323 327 327 325 325 323 320 319 318
322 321 322 325 325 323 323 323 325 325 324 325 325 324 324 323 319 319 318 317 315 313 310 310 310 308 306 307 308 310 310 312 312 314 321 326 327 326 325 323 321 319 318
318 321 322 321 320 324 323 323 322 323 323 324 323 323 321 320 318 316 315 313 311 309 309 310 308 308 306 306 307 309 308 308 310 311 313 325 326 327 326 324 322 321 319
317 319 321 321 321 322 322 322 322 323 323 323 320 319 318 318 317 315 313 311 310 308 311 310 308 306 304 304 305 306 306 306 308 310 312 316 324 326 327 325 323 320 319
315 317 319 319 321 321 320 321 320 323 323 323 322 320 318 318 316 316 313 311 311 309 311 309 308 305 303 303 303 305 307 307 308 309 312 314 320 323 324 325 323 319 318
315 315 317 320 320 319 318 320 319 320 320 319 322 321 319 319 318 317 315 313 312 312 313 311 309 305 304 302 301 301 303 306 305 308 310 311 313 315 321 323 323 320 318
315 315 316 317 318 318 318 319 318 316 315 315 318 321 321 320 320 318 318 316 315 314 313 312 308 306 303 301 300 300 300 301 303 307 307 309 309 310 310 319 319 318 317
315 315 315 316 316 317 317 317 317 315 312 312 313 318 319 319 321 319 318 318 317 315 312 310 307 305 303 301 303 300 298 298 298 302 304 307 306 307 306 308 309 310 315
313 314 314 315 315 316 315 315 314 312 312 312 313 316 316 318 320 318 317 317 315 314 312 311 306 305 302 301 299 298 298 298 298 298 299 302 304 305 303 304 304 302 306
311 312 313 314 315 315 316 315 315 311 311 311 312 312 317 319 319 319 318 317 315 312 310 309 307 302 301 300 298 296 294 297 298 300 297 298 299 302 302 302 301 299 297
307 309 311 313 314 315 315 311 309 311 311 309 309 310 313 318 320 320 318 318 315 313 311 309 306 304 300 299 300 300 294 295 299 300 299 299 298 298 302 302 300 297 296
307 309 311 312 313 313 311 309 309 309 308 309 308 310 312 317 320 322 320 318 316 314 311 311 308 304 303 299 302 304 304 301 298 297 297 300 300 299 299 298 298 296 296
308 308 310 311 311 312 311 310 308 307 309 309 310 311 312 315 319 320 320 318 317 315 313 312 309 309 305 304 303 303 303 303 301 299 295 299 298 300 299 298 298 297 295
308 308 309 310 311 311 311 310 309 308 307 309 311 312 313 313 316 318 318 318 317 315 313 314 313 309 307 306 305 304 302 303 301 299 295 294 296 299 299 299 297 297 295

GFSSE_sfc_thetae_048.txt.gz
Theta_e
337 332 348 348 347 346 346 346 346 347 349 349 348 349 348 348 347 347 345 344 343 344 341 340 340 339 339 339 337 336 337 338 338 338 340 339 340 340 339 339 338 335 339
341 344 345 346 346 345 346 345 345 345 346 348 348 347 347 347 346 344 343 344 344 343 340 339 338 337 337 337 337 337 337 337 336 337 337 336 336 336 337 336 337 334 337
341 342 339 345 346 346 345 346 346 346 348 348 347 347 346 346 344 343 343 343 343 343 340 340 339 339 338 336 337 337 336 335 335 332 333 326 326 333 333 331 333 332 333
341 340 340 344 345 345 345 346 346 348 348 347 346 346 345 344 343 344 343 342 343 343 340 341 341 339 337 337 337 335 334 332 331 331 329 330 329 334 333 331 330 329 330
339 338 340 342 341 343 344 345 346 347 346 346 346 345 345 344 344 343 342 342 343 342 340 340 340 338 337 336 335 334 331 330 328 323 323 325 325 329 329 327 327 327 327
332 337 340 339 340 340 341 343 344 345 344 344 344 344 343 342 343 343 341 341 341 337 335 335 337 338 336 334 334 331 330 328 324 318 321 324 322 328 328 327 325 326 325
330 334 337 338 338 339 339 339 341 343 343 343 343 342 341 341 341 341 340 338 336 336 336 338 337 336 334 333 331 330 328 325 318 317 317 319 322 328 327 327 326 325 325
329 330 334 338 338 337 334 334 337 338 341 341 341 341 340 339 339 339 337 335 336 339 339 338 336 334 333 332 330 329 328 325 319 318 318 320 327 326 326 325 324 323 323
331 328 328 333 336 335 332 332 333 337 339 340 340 340 339 337 337 337 334 334 335 337 336 335 333 332 332 330 329 327 326 324 316 318 319 320 327 325 325 324 324 322 322
330 332 329 332 331 329 329 329 330 334 336 339 339 339 337 336 335 332 331 331 332 332 334 334 332 332 331 329 327 327 326 323 316 317 318 322 326 325 325 324 323 322 321
327 328 332 331 326 324 324 327 329 329 336 338 338 337 332 328 326 323 328 330 329 328 330 332 332 330 329 328 328 326 321 316 316 317 319 327 326 326 324 323 322 321 320
322 325 327 329 327 325 327 323 322 326 332 336 335 331 328 325 322 323 327 327 327 327 328 331 331 329 324 321 322 321 316 316 316 317 320 327 326 325 324 322 321 320 319
322 322 323 323 322 323 324 325 325 327 329 331 329 328 324 323 323 320 320 319 318 319 315 318 316 314 313 315 313 314 315 316 316 318 324 327 326 325 324 322 320 319 318
320 321 322 320 319 321 323 325 324 325 325 327 326 325 323 322 319 317 315 313 310 309 309 309 308 308 310 312 313 313 313 314 315 318 323 327 327 326 324 323 321 319 318
319 321 323 321 320 319 320 322 323 323 324 325 324 324 321 320 318 315 313 311 309 309 310 307 306 306 307 308 311 311 312 312 314 315 318 326 327 326 326 324 323 320 319
320 320 322 322 321 321 320 321 321 323 324 324 323 320 321 318 316 314 311 310 308 309 310 308 307 305 305 307 307 308 309 309 310 312 314 321 324 326 327 324 323 322 320
317 321 320 320 323 321 321 322 322 323 322 323 321 318 318 318 315 314 311 309 308 309 310 308 306 304 302 305 305 306 306 307 307 309 313 315 320 323 325 326 323 321 320
316 318 321 322 321 321 321 320 321 322 322 323 320 319 318 317 316 313 312 310 309 309 311 309 307 303 302 302 302 304 305 306 307 308 312 315 317 318 322 324 324 322 320
316 316 318 320 320 319 319 319 318 317 321 319 320 319 318 317 317 315 313 312 311 311 312 310 307 306 303 301 301 301 302 304 304 308 309 311 313 315 315 321 321 321 321
315 316 318 319 319 318 319 318 316 315 312 317 318 320 320 319 319 317 316 314 314 312 312 311 307 306 305 302 302 300 298 299 301 304 306 309 309 311 311 313 315 314 318
314 315 316 316 318 318 317 315 315 315 312 311 313 317 320 320 320 319 318 317 316 313 312 310 306 305 302 301 299 299 299 299 299 299 302 304 307 308 307 308 309 308 312
313 314 314 315 316 317 318 318 315 316 312 311 312 315 318 319 320 320 316 316 314 312 310 308 307 303 303 301 299 297 296 297 299 299 298 301 303 306 306 306 306 306 305
311 313 313 315 315 317 318 316 311 312 311 310 310 312 314 317 318 318 317 316 315 313 310 308 306 304 301 300 300 300 296 296 299 300 299 299 299 300 304 305 304 304 302
310 312 313 314 315 315 316 314 313 313 313 313 310 310 312 315 315 317 318 316 315 313 311 310 308 304 302 300 300 302 303 303 297 297 298 299 299 299 300 302 302 302 300
309 309 309 312 314 315 313 313 311 310 312 310 307 308 309 311 314 316 317 316 314 314 313 311 308 305 304 303 304 304 304 303 302 300 297 297 298 299 300 299 301 301 299
307 307 308 309 310 312 311 310 310 310 309 308 307 308 309 310 311 314 316 316 315 314 313 312 310 308 309 308 307 307 305 303 301 299 298 298 298 299 300 299 299 299 299

GFSSE_sfc_thetae_054.txt.gz
Theta_e
341 345 347 350 352 351 350 349 349 349 350 351 350 350 350 350 350 349 348 347 347 348 345 344 343 342 344 343 342 342 342 342 342 343 342 342 342 342 341 342 341 339 340
345 345 346 348 351 351 350 349 349 350 350 351 349 350 349 350 349 349 349 347 346 347 344 342 341 340 341 340 340 341 341 341 340 341 341 340 340 340 339 339 339 337 337
344 346 346 347 347 351 351 350 350 351 351 350 350 350 350 349 349 348 346 345 346 345 342 340 339 338 339 338 339 338 338 338 338 338 338 334 332 336 336 335 335 334 334
341 345 344 346 346 350 350 350 350 351 350 349 349 349 348 347 346 345 344 343 343 343 340 339 339 337 337 338 338 338 337 335 335 336 331 333 332 334 335 333 333 332 332
342 343 342 345 346 347 349 349 349 348 348 347 348 348 347 346 346 344 342 341 342 341 338 338 339 337 337 337 336 335 336 336 336 332 330 330 331 331 332 331 331 330 329
343 344 344 342 345 346 347 347 348 347 346 345 345 346 346 346 345 344 341 342 343 342 339 337 337 336 335 335 334 333 334 333 333 328 328 330 328 329 329 328 327 327 326
336 345 345 341 343 343 343 347 346 345 344 344 344 344 345 345 344 343 341 342 342 342 338 336 336 334 334 334 332 332 331 331 327 327 328 328 330 329 329 328 326 326 325
337 345 345 343 341 340 342 342 343 342 342 343 342 343 344 343 342 342 341 341 340 339 338 337 336 334 333 332 330 330 329 330 327 327 327 327 329 328 328 325 325 324 324
337 335 343 343 341 339 338 339 340 340 340 340 341 342 341 340 340 340 339 339 340 339 337 336 334 333 332 331 330 329 328 331 327 327 326 326 327 327 327 325 324 323 323
339 332 336 337 340 341 340 335 338 338 338 339 340 338 338 338 337 338 338 340 340 337 336 335 333 332 330 330 329 328 327 328 327 326 326 326 327 327 326 325 324 323 322
333 335 334 330 331 336 335 335 337 337 337 337 337 336 334 336 335 334 334 337 337 334 333 333 332 331 330 329 328 327 327 326 326 326 325 328 327 327 326 324 323 322 322
328 330 334 328 333 334 333 330 332 334 338 335 332 333 336 336 333 331 336 336 334 333 332 332 331 329 326 325 326 326 326 327 327 326 325 328 327 326 325 324 322 321 321
329 328 334 331 332 330 327 327 329 331 330 329 329 329 334 333 330 335 337 335 335 331 329 329 327 326 325 324 324 325 327 327 327 325 325 327 327 326 325 323 322 320 319
326 328 329 332 331 330 328 328 328 330 329 328 328 329 334 330 331 331 331 332 332 330 329 328 326 327 326 325 325 326 327 326 327 326 325 327 327 325 325 323 322 320 319
323 326 329 328 327 326 324 325 327 328 327 328 328 330 329 328 329 328 329 331 330 331 330 327 327 326 325 324 324 325 325 326 327 326 326 326 326 326 325 324 322 321 319
323 323 323 326 326 326 322 324 326 326 326 327 327 328 327 327 327 323 324 324 326 329 329 326 325 324 322 323 323 324 324 325 326 327 326 326 325 326 326 324 324 322 320
325 324 323 322 323 322 323 323 324 325 325 326 326 329 327 325 325 325 321 322 323 325 325 324 324 323 321 321 322 323 323 324 324 325 326 326 326 324 325 326 324 323 321
323 322 323 324 323 323 322 323 322 324 324 325 327 326 324 322 324 324 321 321 322 323 322 322 322 321 320 320 320 321 321 321 322 323 324 325 325 325 324 325 326 325 322
321 322 321 322 322 322 323 323 322 323 323 324 327 324 324 322 322 322 320 322 324 322 322 320 319 320 318 318 318 318 318 318 318 318 321 323 325 324 325 323 324 324 324
322 322 322 322 322 323 322 323 322 321 321 323 323 325 325 323 323 323 321 323 325 323 322 321 319 319 318 317 313 314 317 317 318 317 318 319 322 324 324 325 326 323 321
322 321 320 319 320 321 319 320 320 318 318 320 321 325 327 323 324 324 322 323 324 324 324 324 321 318 316 318 313 313 314 317 317 317 318 318 319 321 324 323 323 323 322
322 321 321 320 321 320 320 320 320 319 318 319 320 323 326 327 324 324 324 323 323 324 325 325 323 319 319 318 314 316 312 314 315 316 317 316 317 317 318 321 322 322 322
322 320 320 320 320 320 320 321 320 319 318 317 318 322 325 328 325 325 325 325 324 324 323 325 325 323 320 320 321 318 314 311 316 318 315 316 317 316 317 319 320 320 321
323 324 322 321 320 320 320 319 317 314 314 317 318 322 324 327 326 325 325 326 327 325 324 325 325 325 324 320 320 319 322 321 315 313 317 316 313 313 315 317 319 319 320
323 323 322 321 321 320 320 319 317 316 316 317 317 319 323 326 326 325 326 328 328 329 328 328 327 327 326 326 322 321 320 320 320 316 314 316 313 310 311 315 318 317 318
323 323 321 320 320 320 319 319 317 317 317 318 316 315 316 319 324 327 326 329 330 329 329 330 330 329 327 326 327 324 322 319 317 316 314 316 313 309 309 312 314 315 315

GFSSE_sfc_thetae_057.txt.gz
Theta_e
344 348 348 351 353 351 350 349 349 350 351 351 350 350 351 350 350 348 348 347 348 348 347 346 345 345 345 345 343 344 344 344 343 344 344 344 343 343 342 343 341 338 340
346 349 347 350 353 352 351 349 349 350 351 351 350 349 350 349 349 348 348 348 348 347 344 344 344 344 343 343 342 343 343 342 342 342 342 341 340 340 340 340 339 336 337
345 348 346 347 349 351 351 350 350 351 351 350 350 350 350 349 349 348 347 346 347 346 342 342 343 342 341 340 341 341 341 341 341 339 339 335 335 338 337 337 336 335 335
344 347 346 347 347 350 350 349 349 350 350 350 349 349 349 348 348 347 346 345 345 344 340 340 341 340 338 338 338 338 339 339 339 338 334 333 333 337 336 334 334 333 332
345 346 346 346 346 348 349 349 349 349 348 349 348 350 349 348 347 346 344 344 344 343 339 338 339 338 337 338 337 336 336 335 335 334 331 332 332 333 334 333 331 331 331
345 344 342 344 346 348 349 349 349 347 346 345 346 348 348 347 345 344 342 342 343 342 339 339 337 336 336 336 336 336 335 335 336 329 328 330 329 332 331 330 328 328 328
345 346 344 342 344 345 347 347 346 345 344 344 346 345 345 344 344 342 341 340 341 340 340 337 336 334 335 334 334 334 333 331 327 327 327 327 328 330 329 329 327 327 326
344 348 345 343 342 342 343 341 341 341 342 343 343 344 344 343 341 341 341 341 339 338 338 337 335 334 334 333 332 330 330 330 328 327 327 326 330 328 328 327 326 325 324
344 346 347 346 343 339 338 338 338 341 342 342 342 342 341 340 339 340 341 340 338 337 337 335 335 334 332 331 330 328 327 330 326 326 325 325 328 327 327 326 325 324 324
341 341 343 343 343 341 342 336 336 337 338 340 340 340 339 339 339 339 338 339 338 337 336 335 334 333 331 330 329 327 326 327 326 325 325 325 328 327 326 325 324 324 323
338 338 334 339 340 340 341 337 336 336 337 338 340 337 335 338 339 337 336 337 336 334 334 334 333 331 329 329 327 327 328 326 326 325 324 328 328 327 326 324 324 323 323
333 336 335 333 337 337 337 333 335 334 335 336 339 339 334 335 336 334 336 335 334 333 332 332 331 329 326 323 324 325 326 327 326 325 325 328 327 327 325 324 323 322 322
332 335 331 331 331 335 331 334 331 339 337 334 331 329 329 334 334 336 336 336 333 330 328 327 326 323 323 322 325 328 327 328 326 325 325 328 327 326 325 323 322 322 320
330 331 332 329 331 332 332 332 331 329 329 328 328 328 329 330 332 335 332 333 330 327 327 324 323 327 325 324 326 327 328 327 325 325 325 327 327 325 325 323 322 321 320
327 330 329 330 332 331 329 330 329 329 328 327 326 327 328 330 330 333 332 331 329 330 327 325 326 325 324 325 326 327 326 327 326 325 324 326 326 326 324 324 323 321 320
326 324 326 327 328 328 327 327 327 328 327 326 324 325 327 330 329 331 331 331 330 330 328 326 326 324 323 324 325 326 326 326 327 327 325 324 325 326 326 324 323 322 320
327 327 324 325 327 324 324 325 327 327 327 324 324 326 329 329 330 333 331 330 330 331 329 327 326 324 321 323 323 324 325 326 326 327 325 325 324 324 326 326 325 322 322
326 325 325 324 324 323 324 325 325 325 325 324 325 327 328 327 329 330 326 326 326 328 326 324 322 321 321 321 322 322 323 324 325 326 326 326 325 324 323 325 326 325 322
325 323 324 325 324 323 324 323 324 324 324 324 325 326 327 326 325 326 322 325 326 325 324 322 322 322 319 319 320 321 322 321 322 322 324 325 326 325 326 323 324 324 324
326 324 325 324 322 323 322 322 322 322 323 324 324 325 324 322 323 325 324 328 324 322 321 321 323 322 321 319 317 317 319 319 319 319 320 322 323 325 326 327 324 323 322
325 324 323 322 322 322 320 319 319 318 320 321 323 323 324 323 323 324 322 326 325 323 323 325 321 320 318 320 315 315 316 318 319 318 319 319 320 322 324 323 326 324 323
323 324 322 321 321 322 322 322 321 319 319 320 321 325 326 327 323 323 324 322 324 324 327 326 325 319 317 318 313 313 310 313 316 318 319 319 323 320 320 324 324 325 324
324 323 321 320 321 322 322 324 322 322 319 317 317 319 323 327 323 323 325 325 325 327 327 328 326 324 318 320 321 317 312 310 315 319 320 320 322 320 319 320 321 322 324
324 325 323 321 321 323 322 320 319 317 315 316 316 317 321 326 325 322 325 328 329 326 328 329 327 327 326 320 321 320 325 322 315 310 318 319 320 319 321 319 316 321 322
326 325 325 321 321 321 322 320 319 319 319 317 316 316 322 325 323 324 327 329 329 328 329 329 329 329 327 325 323 322 322 322 323 317 314 316 318 319 318 315 316 315 322
326 326 324 323 320 320 322 321 320 318 317 316 315 315 321 323 326 325 326 328 329 330 330 329 330 330 329 328 327 325 322 319 318 318 316 317 318 317 318 317 316 314 315

GFSSE_sfc_thetae_063.txt.gz
Theta_e
342 347 350 350 350 351 350 350 350 349 350 351 352 351 350 349 348 348 347 346 346 347 348 348 347 346 347 348 347 347 346 345 345 345 345 345 343 343 342 341 342 339 344
344 347 349 350 350 351 351 350 350 349 351 351 351 350 349 348 348 347 347 348 348 349 347 346 345 344 344 345 346 345 345 343 343 343 344 343 341 341 340 339 341 339 341
342 346 349 350 350 350 350 350 350 350 351 351 351 350 348 348 348 348 348 348 349 349 347 345 345 344 344 344 344 343 343 341 340 339 340 334 335 339 339 337 339 337 337
343 344 348 350 350 350 349 350 350 351 351 351 351 349 349 349 349 348 347 347 348 348 345 345 344 344 344 343 342 342 341 340 339 338 333 334 334 337 336 335 334 334 334
341 343 347 348 349 349 349 349 349 349 349 349 349 349 349 349 348 348 346 346 347 347 345 344 342 342 342 341 340 340 340 337 335 332 330 331 330 334 335 333 331 331 331
337 343 343 344 347 349 349 348 348 348 346 347 348 348 349 349 348 346 344 344 346 346 343 341 341 341 338 338 338 338 336 335 330 326 329 330 328 332 331 330 328 329 329
335 340 341 341 344 348 348 348 347 346 344 346 347 347 347 347 346 344 343 343 343 344 342 340 340 338 336 336 335 332 331 330 324 322 323 326 326 330 330 329 328 328 327
336 340 341 343 344 342 344 344 344 344 342 343 345 345 346 344 343 342 342 341 340 340 339 338 337 336 336 334 332 330 331 328 324 321 321 324 328 329 329 328 327 326 326
335 337 341 338 340 340 337 336 335 337 333 335 338 343 343 341 341 341 342 341 340 338 337 337 336 335 334 332 329 329 328 328 321 321 321 322 328 328 328 327 326 325 325
334 335 335 335 335 334 333 333 331 330 329 329 329 334 339 338 339 340 339 339 338 337 336 335 334 333 332 329 328 328 327 327 320 319 319 323 328 327 327 327 326 325 325
332 331 332 333 334 332 333 332 330 329 329 330 330 327 334 336 336 336 336 337 336 334 334 334 333 330 328 328 327 327 326 320 320 320 319 328 327 327 327 326 325 325 324
325 327 329 330 333 332 333 330 329 327 326 328 329 327 334 335 333 335 335 334 334 333 333 332 330 328 324 318 319 323 320 320 320 320 321 328 327 327 327 325 325 324 323
326 328 328 330 331 331 330 328 328 326 327 325 331 333 333 333 333 332 332 330 330 330 327 326 324 318 315 316 317 317 319 319 319 320 324 327 327 327 326 325 324 323 322
325 330 328 330 330 330 331 329 326 327 329 327 331 332 330 330 330 329 328 328 327 325 321 320 317 315 314 317 318 319 319 319 319 319 323 326 327 326 326 325 324 322 321
323 327 327 330 329 329 328 327 327 329 329 329 329 330 330 329 329 327 326 324 322 320 318 316 315 316 314 316 318 320 319 318 318 320 320 325 326 326 325 325 324 323 321
323 325 328 328 328 328 327 327 326 328 327 327 328 328 328 328 328 326 323 321 320 318 315 316 316 315 315 315 318 321 319 319 318 319 319 320 324 326 325 324 324 323 321
321 324 325 327 328 327 325 327 328 326 324 322 324 326 327 327 326 327 322 320 321 319 315 315 317 318 315 318 317 319 320 319 318 319 319 318 320 323 325 325 324 323 322
321 321 325 327 326 326 323 325 327 325 322 321 322 324 326 326 326 327 324 320 322 320 319 317 318 316 315 316 315 316 318 318 318 318 319 319 319 319 322 325 325 325 323
321 322 323 324 324 324 324 324 326 326 324 322 322 323 325 325 325 327 325 323 323 321 321 320 317 316 314 314 314 314 315 317 317 318 317 317 318 318 318 322 323 323 324
321 321 322 323 323 323 324 324 325 325 324 323 322 322 324 324 323 325 325 324 324 322 319 317 317 314 314 315 317 315 313 314 316 316 317 318 317 318 318 318 320 319 322
319 321 321 321 322 321 320 320 320 319 320 320 321 321 323 322 322 319 322 321 320 320 319 317 316 314 312 313 310 309 309 311 312 312 314 317 317 318 318 318 318 318 319
318 319 321 320 320 320 320 320 320 320 320 320 320 321 322 320 320 318 319 319 318 319 318 316 314 313 313 313 309 307 302 305 307 310 310 311 315 318 319 319 318 318 318
317 318 320 320 320 320 320 320 320 320 319 318 319 319 320 319 319 319 319 318 317 318 317 314 313 313 311 312 310 306 301 300 302 305 308 308 309 310 315 319 319 319 318
317 319 321 320 319 320 320 318 317 316 314 316 317 318 317 318 318 318 319 318 317 318 317 315 316 316 312 310 308 312 309 310 305 303 307 308 309 310 310 312 319 319 319
319 318 318 319 320 319 319 319 317 315 316 317 317 316 317 317 317 317 318 318 316 316 317 317 317 317 317 313 309 307 307 310 311 308 304 306 309 310 311 311 313 316 319
318 317 317 318 319 320 319 318 316 316 313 313 312 314 315 318 318 317 318 319 317 316 316 320 319 318 317 317 315 313 312 309 309 308 306 306 306 308 311 312 311 312 312

GFSSE_sfc_thetae_066.txt.gz
Theta_e
342 347 349 350 351 350 350 349 349 350 351 351 351 351 351 351 350 349 348 348 349 351 349 348 350 349 349 348 349 348 347 346 344 345 345 345 344 344 344 343 343 340 345
343 348 347 349 350 350 350 349 349 350 351 351 351 350 349 349 348 347 348 347 349 350 347 347 349 348 347 346 346 346 345 344 343 343 343 343 342 343 343 342 343 340 343
343 348 348 348 350 350 350 350 350 351 352 351 350 349 348 348 347 346 346 347 348 349 347 346 347 347 345 345 344 343 342 342 340 341 339 335 336 340 340 339 340 340 340
343 346 348 348 349 350 349 350 349 351 351 350 349 348 348 348 349 349 347 347 347 347 344 344 346 345 344 343 342 341 340 340 339 338 334 334 334 338 338 337 336 336 336
341 345 348 347 348 348 349 349 349 349 349 349 348 349 349 349 349 349 347 347 347 348 345 345 344 343 343 341 340 340 338 337 336 333 330 331 331 334 335 333 332 332 332
339 344 345 345 347 348 349 348 348 348 347 347 347 348 349 349 349 348 346 346 346 346 345 344 343 343 340 338 338 336 335 334 332 329 329 330 328 332 332 331 330 329 330
336 341 344 344 346 348 348 348 347 346 346 347 347 347 348 348 347 345 344 344 344 345 344 343 342 340 339 337 336 334 332 331 325 326 326 326 327 330 330 329 329 329 328
336 338 341 344 346 346 345 345 345 345 345 345 346 346 347 346 344 344 343 343 343 342 341 340 338 337 335 333 333 331 329 328 323 322 323 325 330 331 329 329 328 326 326
336 336 337 341 341 339 339 339 338 341 341 341 334 341 343 342 341 342 342 342 341 339 339 338 337 334 333 332 331 329 328 327 320 321 322 324 328 328 329 328 327 326 326
331 334 335 337 337 334 333 335 334 336 335 333 333 330 332 339 340 340 339 340 339 338 337 337 335 333 332 331 330 328 327 326 318 318 319 322 328 328 328 327 326 326 325
330 329 330 331 332 333 331 333 333 334 335 333 331 329 326 333 336 337 336 337 337 335 335 335 333 331 330 330 329 328 325 320 320 319 319 328 328 328 327 326 325 325 325
324 325 328 329 329 332 331 328 327 329 329 328 328 328 326 331 334 335 335 335 334 334 334 332 330 329 323 321 324 325 319 319 319 319 320 328 328 328 327 326 325 325 324
325 325 326 328 331 332 330 328 326 323 324 326 326 325 326 333 333 333 332 331 330 331 327 326 324 317 316 317 318 318 318 319 319 320 323 327 328 328 327 326 325 324 323
325 324 325 328 331 330 329 327 325 323 322 323 326 324 328 331 331 330 328 328 326 324 321 319 316 315 315 317 318 317 318 318 318 319 323 326 327 327 327 326 325 324 323
323 325 325 329 329 330 328 327 324 324 327 324 330 326 330 330 329 328 327 326 324 322 319 315 313 313 314 316 319 317 317 317 317 319 320 326 326 327 326 326 325 323 322
321 322 324 327 329 329 328 326 324 328 328 328 330 330 331 330 328 326 325 323 322 320 318 313 313 311 312 315 318 317 317 317 317 318 319 321 324 326 326 325 325 323 322
322 322 323 324 328 328 326 326 327 327 327 328 328 329 329 329 326 324 321 320 320 319 313 312 313 313 313 316 318 317 317 317 317 317 317 318 321 323 324 326 324 323 322
320 321 325 327 327 326 326 326 326 325 323 324 326 326 328 328 327 322 320 319 317 316 313 313 313 313 312 314 315 317 316 316 317 317 317 317 317 319 322 324 325 325 323
320 321 324 326 325 325 325 326 325 322 321 323 324 325 326 327 327 322 319 320 317 316 312 315 314 314 313 313 315 315 316 315 315 317 316 316 316 316 317 322 323 323 324
320 320 322 324 324 325 325 326 325 324 322 321 322 324 325 325 326 325 321 321 318 316 314 315 314 314 315 315 316 315 314 315 315 315 315 317 316 316 316 317 319 319 321
318 319 320 322 322 323 322 322 322 321 322 321 322 323 324 323 324 325 322 322 321 318 318 316 314 314 313 314 311 309 309 312 314 314 315 314 315 316 315 316 316 317 319
318 317 318 321 322 322 322 322 321 322 321 322 321 322 323 322 322 323 324 321 322 320 316 315 314 311 313 314 310 308 304 306 308 311 312 314 313 315 316 316 316 317 317
317 317 317 319 320 320 320 320 318 320 319 318 319 319 322 321 320 320 322 319 320 319 317 314 314 313 311 311 312 309 302 302 303 305 308 311 313 314 316 316 317 317 317
316 317 317 318 319 319 320 319 318 316 315 317 318 320 321 320 319 319 320 318 318 319 318 316 314 312 312 312 309 311 309 307 302 300 305 306 309 312 315 317 317 317 317
317 317 317 318 319 319 319 319 318 316 317 318 318 318 319 319 318 317 318 318 317 318 318 317 315 312 312 312 309 308 307 308 308 305 302 304 306 308 310 313 316 317 318
317 317 316 316 317 318 319 319 317 316 316 315 316 315 316 316 316 317 317 317 317 317 318 317 316 313 313 313 313 310 308 306 307 307 304 304 305 306 310 310 310 315 318

GFSSE_sfc_thetae_069.txt.gz
Theta_e
341 345 348 350 350 350 349 349 349 350 351 352 353 353 353 352 351 351 350 350 350 352 350 350 352 351 349 349 348 347 347 346 345 346 345 346 345 345 344 344 344 341 345
342 346 347 349 350 349 349 349 350 350 351 352 352 352 351 351 350 349 349 350 350 351 349 349 352 351 348 347 347 346 345 344 343 344 344 344 344 344 344 343 343 342 344
343 346 346 348 349 350 349 350 350 350 351 351 351 350 350 350 349 348 349 349 349 350 349 349 348 348 347 346 345 344 344 343 342 341 340 336 338 343 343 342 343 342 342
344 346 345 348 348 349 349 349 350 351 351 350 349 349 349 348 348 348 348 347 348 349 348 348 348 347 345 344 342 342 341 340 339 338 333 334 335 340 339 339 340 340 341
342 345 345 346 347 348 348 349 349 349 349 348 348 348 348 347 347 348 347 346 347 348 348 347 346 344 342 341 340 340 339 338 337 332 329 332 332 336 337 336 335 335 335
339 345 345 344 346 348 348 348 348 348 347 346 347 347 348 348 348 347 346 346 346 346 347 346 343 341 340 339 338 338 337 335 332 328 329 331 330 335 333 332 332 333 333
336 341 345 343 345 347 348 348 347 347 346 345 346 346 348 348 348 347 345 346 345 345 345 344 342 339 339 338 337 336 334 332 326 325 324 326 327 332 331 330 330 329 329
335 338 342 345 345 345 346 344 343 345 345 345 345 346 347 346 345 345 344 343 343 342 341 341 339 339 337 336 334 333 331 330 324 322 324 324 330 330 331 330 327 328 328
335 335 337 343 346 342 339 341 338 340 342 342 342 341 342 342 343 343 343 343 342 340 340 339 338 335 336 335 332 330 328 327 320 321 323 324 330 331 329 327 328 327 326
332 332 333 335 334 331 332 337 336 335 334 334 336 337 337 336 339 340 340 341 340 339 338 337 334 334 335 332 330 328 327 326 318 320 320 325 329 330 329 328 327 326 326
329 328 329 330 332 332 333 337 337 335 332 333 334 333 329 331 335 336 336 337 338 336 335 334 332 333 332 330 329 328 325 319 318 317 318 328 328 329 328 327 326 326 325
323 324 327 327 328 328 333 332 333 330 333 330 330 330 327 330 333 333 334 335 335 334 334 332 331 331 329 324 325 324 319 318 318 318 319 328 328 328 327 326 325 325 325
324 323 325 327 330 328 328 327 329 330 330 329 328 327 328 329 332 331 331 331 330 332 328 326 323 322 322 321 318 318 318 318 318 319 323 328 329 328 327 326 326 325 324
322 323 325 329 329 330 328 326 325 325 327 325 325 324 327 327 329 331 330 328 326 325 323 320 315 316 318 318 317 317 317 317 317 317 322 327 328 327 328 327 325 325 324
321 322 326 327 328 328 327 326 324 323 324 324 324 324 327 328 329 330 328 326 322 321 320 316 313 315 317 317 317 317 316 316 316 318 318 326 327 327 327 327 326 325 324
322 322 326 325 329 329 327 325 324 322 324 322 325 324 329 329 330 328 326 325 322 320 317 316 313 313 316 317 316 316 316 316 316 316 318 321 324 326 327 325 325 325 324
323 322 324 325 328 328 327 325 325 326 326 325 326 324 327 330 329 327 325 322 321 318 314 312 311 310 313 317 316 316 316 315 316 316 316 317 320 323 325 326 324 324 324
320 321 322 326 325 327 326 326 326 326 325 327 328 328 327 329 328 325 323 321 321 317 315 313 311 310 312 316 315 315 315 315 315 315 315 316 316 318 322 325 325 324 323
320 319 321 325 324 325 325 326 325 323 322 323 326 326 328 327 325 323 320 319 318 317 315 313 312 312 312 314 315 315 313 314 314 317 315 315 315 315 315 322 323 323 324
318 318 322 323 325 325 325 325 323 322 322 322 322 324 326 327 324 320 318 318 317 313 313 313 314 312 312 314 316 314 314 313 314 313 314 315 314 315 315 316 318 318 322
317 317 321 321 324 324 323 322 322 320 320 321 320 323 324 326 324 320 319 317 316 310 312 314 311 311 310 313 311 309 310 313 312 313 313 313 314 314 314 314 315 315 317
318 318 319 319 322 324 324 323 323 323 322 322 321 321 324 324 326 322 319 318 316 314 314 315 312 310 310 312 310 309 305 308 311 311 311 312 313 315 315 315 314 315 315
317 317 318 319 320 322 323 320 320 320 320 320 320 320 323 322 323 325 321 320 319 317 316 315 312 312 310 310 312 309 303 304 305 307 310 312 312 313 315 315 315 315 316
317 316 316 320 319 320 321 320 319 318 316 319 320 320 322 321 322 321 323 320 320 320 317 315 314 314 313 311 308 310 310 308 304 302 306 310 312 312 313 313 314 315 316
318 317 318 318 317 319 319 319 318 316 317 318 318 318 320 320 319 318 321 319 319 320 319 317 313 311 314 313 309 307 308 309 308 305 302 303 305 310 314 314 315 315 316
317 317 316 316 315 317 318 317 315 316 316 316 317 317 318 319 318 317 319 318 319 318 318 317 315 313 313 315 312 310 309 308 308 307 303 303 303 306 309 311 313 315 316

GFSSE_sfc_thetae_075.txt.gz
Theta_e
343 347 347 347 348 351 351 351 352 353 353 353 354 354 354 354 354 353 352 352 353 354 353 352 353 352 351 350 351 350 349 348 348 348 348 349 348 348 347 347 346 345 347
345 348 347 346 347 350 351 351 351 352 353 354 354 353 353 353 353 352 351 352 352 354 352 352 353 354 351 349 349 348 347 346 346 346 347 348 347 346 346 346 345 345 346
345 348 349 345 347 350 350 351 352 354 354 354 354 353 353 353 352 351 351 351 351 353 353 351 351 350 348 348 347 346 346 345 345 345 345 342 343 345 345 345 345 345 345
347 347 349 346 347 349 349 350 350 353 354 353 353 353 353 352 351 351 351 350 351 352 351 350 351 349 348 346 345 345 344 344 342 343 343 343 342 344 344 343 344 344 344
345 347 347 344 344 347 349 349 349 350 351 352 352 353 352 352 352 351 349 350 350 350 351 350 349 347 345 343 342 342 341 340 339 341 342 342 343 343 343 343 342 342 342
346 346 345 344 345 346 349 349 349 347 346 350 350 351 352 352 352 350 349 349 350 350 350 349 346 345 342 341 341 340 338 337 337 339 339 340 340 340 340 340 340 339 340
343 346 347 343 344 346 348 348 348 348 344 347 349 349 350 350 350 347 346 347 346 348 348 347 345 342 341 340 339 337 335 335 337 337 336 337 337 337 337 337 335 336 336
344 343 345 345 345 345 346 346 345 343 344 344 347 348 349 347 346 345 344 343 344 345 344 343 342 341 340 338 337 334 332 333 334 334 334 335 336 335 335 333 333 332 333
345 346 343 344 346 343 341 342 339 340 341 343 342 342 341 340 341 341 342 343 343 343 342 341 340 339 339 336 334 332 330 331 332 332 332 332 334 333 332 331 331 331 331
342 345 344 342 344 346 348 337 338 339 339 340 339 338 336 336 336 338 339 341 341 341 340 340 339 338 337 334 332 330 329 330 331 331 331 332 333 331 331 330 330 329 329
339 341 340 340 343 343 347 340 339 339 339 338 338 336 334 337 335 335 336 337 339 337 337 338 337 335 333 332 331 329 329 330 330 329 329 331 332 331 331 329 329 328 328
335 337 339 339 338 339 341 340 343 342 343 341 337 334 337 336 334 332 333 335 336 336 335 336 335 332 332 332 330 327 329 329 328 329 329 331 330 332 331 329 327 327 326
335 336 337 335 336 336 335 337 338 340 341 338 335 334 336 336 334 333 332 333 332 334 335 335 334 333 333 331 329 328 327 327 327 327 328 329 331 330 329 327 327 327 326
332 334 335 334 334 333 334 332 335 335 335 334 335 334 333 335 331 330 329 332 331 331 334 335 333 332 331 329 328 327 327 326 325 325 326 328 330 329 328 327 327 326 326
330 333 332 332 332 332 331 331 332 333 334 331 332 331 330 333 332 330 329 332 329 327 332 331 330 329 328 327 326 325 325 325 325 325 326 326 327 327 328 329 328 327 326
329 331 330 330 332 332 330 329 329 331 331 330 329 330 331 333 332 328 329 330 326 325 328 328 328 327 327 326 325 325 325 325 325 326 325 326 325 327 329 328 328 327 326
329 331 328 329 331 329 329 328 328 327 328 328 328 329 330 332 330 329 330 328 325 324 325 326 326 326 325 325 324 324 324 324 323 325 326 326 324 323 326 327 328 326 326
329 328 328 327 328 328 328 327 328 326 326 327 326 328 329 330 331 329 328 326 325 321 322 323 324 323 323 323 322 322 323 324 323 325 325 325 325 324 323 325 326 327 325
328 329 325 327 327 327 327 327 327 327 326 326 326 326 327 328 330 329 327 325 323 323 321 322 323 323 322 322 321 322 322 322 323 322 324 325 326 325 325 323 323 323 325
328 328 326 327 326 327 327 326 327 327 327 328 327 326 327 328 329 328 326 323 323 322 320 320 321 323 322 321 319 319 321 322 322 322 323 323 325 325 326 325 325 323 322
327 325 325 325 325 325 324 324 323 322 324 324 327 328 327 326 328 325 323 321 322 322 322 321 320 321 320 322 318 318 319 321 321 321 322 322 323 324 324 325 325 324 323
323 324 325 325 325 326 326 324 324 323 324 324 327 327 329 326 325 323 321 321 321 323 322 321 320 319 320 321 318 317 312 315 318 319 319 320 321 322 322 323 323 324 324
322 323 323 324 325 327 327 326 323 323 323 321 321 323 324 323 322 321 321 320 320 321 319 319 320 319 316 319 321 318 312 312 314 317 318 319 320 320 321 322 322 322 322
323 325 324 323 324 326 326 323 321 320 319 321 321 322 324 324 322 321 318 318 319 320 320 319 319 318 317 315 318 318 321 318 313 310 314 318 318 318 319 320 321 321 322
324 323 322 322 323 324 325 323 321 321 323 322 322 321 322 324 322 322 319 317 316 318 320 319 319 319 321 320 318 317 317 317 319 316 312 312 315 318 320 321 321 321 322
323 321 319 320 320 323 324 324 322 321 320 320 320 321 322 322 322 321 320 318 317 316 316 316 317 320 320 321 320 320 317 315 313 313 311 312 313 314 319 320 322 322 322

GFSSE_sfc_thetae_078.txt.gz
Theta_e
343 349 348 350 351 352 352 352 353 353 353 353 354 354 354 354 354 354 354 354 353 354 353 352 352 350 350 350 350 351 351 350 349 349 349 350 349 349 348 348 347 347 348
348 350 346 348 351 351 352 352 353 354 354 354 354 354 354 354 354 353 354 353 353 355 353 352 351 351 351 351 350 349 349 348 347 347 348 349 348 347 347 347 347 346 347
350 353 351 346 349 351 351 352 354 355 354 354 354 354 354 354 353 352 352 353 353 354 354 352 352 352 350 349 348 347 347 347 346 346 347 346 346 347 346 346 345 346 346
348 353 353 346 348 350 351 352 353 354 354 354 353 354 354 353 353 352 351 351 352 354 354 353 351 351 349 347 346 346 346 345 344 344 345 344 344 345 345 345 344 345 345
348 351 352 346 346 350 350 351 351 353 353 353 353 354 354 353 352 352 350 351 352 353 354 352 350 349 346 345 344 344 344 343 343 343 341 341 343 344 344 344 344 343 343
348 350 347 344 345 348 349 350 349 349 350 351 351 353 353 353 352 350 350 350 352 352 352 350 348 346 344 342 342 342 340 340 340 341 341 342 342 343 343 342 342 343 342
348 351 351 342 344 346 349 350 349 348 346 350 351 351 351 351 350 348 349 349 349 350 349 348 346 344 342 341 341 339 338 338 340 339 338 340 341 341 341 340 339 339 339
349 351 352 345 345 345 346 347 347 346 344 347 349 348 349 348 348 346 345 347 347 345 344 345 343 342 341 339 338 336 335 336 338 337 337 336 339 339 338 337 337 338 336
351 351 352 348 348 343 341 343 343 343 343 342 344 343 343 341 342 342 343 342 343 343 343 343 342 340 339 337 335 333 333 335 337 336 336 335 337 336 335 334 334 334 334
350 352 346 347 348 350 350 340 341 341 341 341 341 339 338 339 339 339 338 340 340 342 342 342 340 339 337 335 333 331 331 333 337 335 334 335 336 334 333 332 332 332 332
346 349 348 345 346 348 350 348 341 341 341 339 339 338 336 341 338 338 337 338 339 338 338 339 338 336 334 333 332 330 331 335 334 333 333 333 334 332 332 331 330 330 330
341 344 347 343 344 346 345 349 349 347 345 344 344 343 344 340 339 339 337 337 337 336 336 336 335 333 333 335 334 330 334 334 333 331 333 333 332 332 331 330 329 329 328
340 342 344 346 348 347 343 344 346 345 344 345 344 342 341 339 338 334 335 338 337 335 336 336 336 337 337 334 334 334 333 333 332 331 329 331 333 332 331 329 328 327 327
338 340 342 342 342 342 342 340 342 343 343 343 343 342 337 336 334 334 333 336 334 336 333 337 340 338 335 333 334 333 332 330 329 329 329 330 332 331 330 329 327 327 327
336 339 341 340 337 338 337 338 338 341 338 339 341 342 338 335 336 335 335 334 332 333 332 338 337 334 334 333 333 332 330 330 328 327 328 328 329 331 329 328 327 327 327
336 338 341 339 339 340 338 336 336 338 338 336 338 339 341 336 334 332 331 333 331 330 332 336 334 333 332 332 332 331 330 327 327 327 327 327 326 328 330 329 329 328 327
335 338 339 337 336 338 338 335 333 334 336 335 335 337 335 334 334 331 330 331 330 330 330 334 333 332 330 330 330 329 328 326 326 326 326 327 324 324 327 329 329 328 327
335 336 337 335 337 338 335 333 331 332 334 335 334 335 333 333 334 333 329 329 327 326 328 331 330 329 329 328 327 327 327 326 325 326 325 326 326 324 325 326 327 328 327
335 337 336 335 334 335 333 332 330 330 332 330 331 330 332 333 333 332 330 330 326 323 325 329 329 329 327 326 326 326 326 326 325 324 325 326 327 326 326 324 324 324 326
334 337 336 332 333 333 333 330 329 331 330 329 328 329 329 329 330 330 331 327 327 322 322 327 328 329 327 326 323 324 326 326 326 325 324 324 325 326 326 327 326 324 322
334 335 334 330 331 330 329 326 326 327 328 327 329 329 329 328 329 329 327 325 326 321 321 323 328 327 325 327 321 321 323 324 324 324 325 323 324 325 326 326 326 324 324
332 334 333 331 330 330 329 326 326 326 327 329 329 329 330 332 329 327 325 324 322 321 321 326 327 325 324 325 321 320 313 317 321 324 325 324 325 324 324 325 325 325 325
331 333 332 332 332 331 331 329 331 327 327 326 326 327 328 332 327 326 325 323 323 322 321 324 327 326 321 324 325 320 314 312 317 322 323 323 323 322 323 324 324 324 325
330 333 333 332 330 331 332 329 328 324 320 325 326 324 328 327 324 324 324 323 323 324 323 325 326 327 325 321 324 323 324 320 315 314 321 323 323 322 323 323 323 324 323
330 331 333 332 329 331 330 329 327 324 323 326 325 323 325 324 322 321 322 321 322 323 326 327 326 325 325 323 322 323 323 323 322 317 313 317 321 321 323 325 324 325 326
330 331 330 329 327 329 329 329 326 323 323 325 323 323 322 322 322 322 320 320 320 321 325 326 325 325 325 324 323 321 321 319 318 317 315 317 318 320 322 323 325 326 326

GFSSE_sfc_thetae_081.txt.gz
Theta_e
340 351 349 352 352 353 353 353 353 353 353 354 354 355 355 355 355 355 355 355 354 355 356 355 353 351 350 350 350 352 352 350 350 351 350 351 349 349 348 349 348 347 348
346 350 348 350 352 353 353 353 353 353 353 354 354 354 355 355 354 354 354 354 354 355 356 354 352 350 350 350 351 350 350 348 348 348 349 349 348 348 347 347 348 347 348
347 349 350 348 351 352 352 353 354 354 354 354 354 354 354 354 354 354 353 353 353 355 355 352 352 351 350 350 349 349 348 347 347 347 346 345 346 348 347 346 347 347 346
347 351 350 347 350 351 352 352 353 355 355 354 354 354 352 354 354 351 352 352 353 354 354 352 352 352 350 348 347 347 347 346 345 346 343 343 344 346 346 345 346 346 345
343 348 352 346 348 351 351 351 352 353 353 353 353 354 354 354 354 352 350 352 352 354 352 352 352 350 347 345 345 345 345 344 342 342 342 343 344 345 346 345 344 344 344
343 346 345 345 347 349 351 351 351 351 351 351 352 353 354 354 353 349 348 351 352 353 352 351 349 348 345 343 343 344 343 342 339 341 341 341 342 344 344 343 344 343 343
345 348 352 343 345 348 350 350 350 349 350 350 351 352 352 352 351 347 348 350 350 350 350 348 348 345 343 343 342 341 341 341 341 340 342 342 342 343 343 342 341 342 341
347 350 353 345 345 345 347 348 348 347 348 349 349 348 351 347 347 345 346 346 346 345 344 346 344 343 342 341 340 339 338 338 339 339 339 342 341 341 341 340 339 339 338
350 351 354 350 347 343 342 344 345 346 345 344 345 343 345 342 342 343 343 343 343 342 343 343 342 341 341 339 338 335 334 337 338 336 337 338 340 340 339 338 338 336 336
349 351 352 352 352 351 350 342 343 344 342 343 345 342 340 341 339 340 339 339 339 341 341 342 339 339 338 336 335 333 333 333 336 334 334 336 339 337 337 336 336 335 334
346 349 349 349 350 351 349 347 343 343 342 341 341 339 337 344 341 340 334 334 337 337 338 339 338 336 334 334 333 332 332 334 333 334 334 335 336 334 334 333 333 333 332
341 346 350 346 350 350 345 349 348 347 346 345 343 345 345 345 341 337 332 332 337 336 337 337 335 333 333 336 334 332 335 335 332 331 332 333 335 334 332 331 331 331 330
340 343 346 347 349 349 346 348 348 345 344 346 345 345 345 345 339 340 335 337 338 338 339 335 334 339 339 337 335 334 333 332 330 332 331 332 335 333 332 331 330 330 329
338 341 344 347 346 347 344 347 346 343 344 344 344 343 343 342 338 336 337 338 337 339 335 334 336 340 337 336 335 333 332 329 329 331 330 331 333 332 331 330 329 329 328
334 340 343 345 344 343 343 342 344 344 343 345 343 343 342 339 337 334 334 335 335 337 334 333 334 338 336 334 332 330 330 329 329 330 329 329 330 332 330 330 329 328 328
333 338 343 344 343 342 340 339 340 343 342 343 342 342 341 340 338 335 332 334 336 336 332 331 332 335 335 331 330 329 329 328 328 327 327 329 327 329 330 329 329 328 328
329 337 341 344 343 342 341 338 339 339 340 338 339 342 340 340 339 337 336 334 334 332 330 330 330 335 332 329 329 329 328 326 325 326 326 327 326 325 327 330 330 328 328
328 336 341 341 341 341 340 338 335 338 339 337 338 339 339 338 338 333 331 331 332 330 329 329 328 332 329 328 325 327 326 325 325 326 325 325 325 324 325 327 329 329 329
331 336 340 340 339 340 340 334 333 335 334 335 336 336 337 335 335 333 332 329 330 329 328 328 327 332 327 325 324 326 326 324 324 323 325 326 326 325 325 325 325 326 327
332 337 340 339 339 339 336 333 334 331 332 333 332 333 335 335 332 333 330 328 328 327 326 326 326 330 327 326 322 323 327 325 324 323 324 325 325 326 325 325 325 323 324
334 336 339 338 338 336 333 331 330 330 331 331 332 331 331 332 334 333 329 326 326 326 325 326 325 326 326 326 322 320 323 325 326 323 323 323 324 324 326 328 326 324 323
332 336 337 336 336 335 333 332 331 330 332 332 333 332 331 330 332 328 328 325 326 324 322 322 324 323 325 326 319 319 313 317 322 323 323 323 324 324 323 325 325 324 325
331 335 336 335 335 334 333 332 331 328 330 328 330 331 330 332 332 331 327 325 324 323 321 322 323 323 321 325 325 319 312 311 316 322 323 323 326 323 324 324 324 324 326
330 335 336 336 334 334 334 330 328 326 323 328 328 330 330 331 331 330 326 324 323 323 321 322 325 324 324 321 325 324 323 320 314 314 321 322 323 322 325 323 323 324 325
330 333 336 335 334 334 333 332 329 327 327 329 328 328 327 328 326 325 325 323 323 322 321 322 323 325 325 323 323 324 323 322 320 317 313 317 322 322 323 325 324 324 325
329 334 334 334 333 333 333 332 329 328 327 327 326 325 324 324 323 321 323 323 324 323 322 322 324 326 326 326 325 324 322 319 318 317 316 317 318 321 323 325 324 325 326

GFSSE_sfc_thetae_084.txt.gz
Theta_e
346 348 351 352 353 354 354 353 352 353 353 354 355 355 355 355 355 355 355 354 355 357 358 356 354 352 352 351 352 352 351 351 350 351 351 352 350 349 350 349 348 345 349
349 349 349 351 353 354 354 353 352 353 353 354 354 355 355 355 355 355 355 354 355 357 357 354 352 352 351 351 351 350 349 348 348 348 349 351 350 348 347 348 347 346 348
347 349 349 349 352 353 353 354 354 353 354 354 354 354 355 355 355 354 353 353 355 356 356 353 353 351 350 351 349 349 348 348 347 347 347 342 344 348 348 347 347 348 346
345 347 349 349 350 352 352 352 354 354 355 354 354 354 354 355 354 353 353 352 354 354 353 352 351 352 350 349 348 347 347 346 345 346 341 342 343 347 347 347 347 346 346
346 346 349 348 349 351 351 351 352 353 353 353 353 354 354 354 353 353 351 352 352 354 353 352 352 351 348 346 345 345 345 342 342 342 340 341 341 345 347 346 345 345 345
344 347 343 345 347 350 351 351 352 352 351 351 352 352 354 354 352 351 349 350 353 353 351 352 350 348 345 344 344 344 343 342 341 339 338 341 340 345 345 345 344 344 343
347 350 346 343 347 349 351 351 351 350 350 350 351 352 352 352 350 349 348 349 351 350 350 350 349 345 344 343 343 342 341 341 338 337 338 339 339 344 344 344 343 343 342
350 352 348 345 346 347 348 348 347 348 349 349 350 350 352 350 346 345 346 346 346 345 345 345 344 344 343 342 342 340 339 338 338 336 338 337 341 343 343 341 340 340 340
353 353 349 346 345 344 344 345 345 346 346 348 348 346 347 343 342 343 342 341 341 342 342 342 343 342 342 341 339 336 335 338 335 337 337 336 341 341 342 340 339 338 337
352 353 351 348 347 346 345 342 344 345 344 345 345 343 341 341 342 341 340 336 338 338 340 342 341 341 339 337 337 335 333 336 334 335 335 336 341 341 340 339 338 337 335
346 349 352 350 349 349 348 345 343 344 343 342 342 340 337 342 340 339 338 338 338 336 336 339 339 337 334 334 332 331 333 332 333 333 333 337 340 340 339 338 337 336 335
342 345 347 347 349 350 345 346 345 345 344 343 343 341 343 342 339 338 335 336 336 335 336 337 336 334 333 333 331 330 330 330 331 331 332 335 338 337 336 335 335 334 334
339 343 347 345 349 349 345 348 346 345 344 343 343 342 342 342 337 333 330 332 334 336 335 336 334 334 335 333 331 331 331 330 330 329 332 333 335 334 333 333 333 332 331
336 340 347 345 345 346 344 344 345 345 344 342 342 341 340 338 334 332 331 332 333 334 335 334 333 335 335 334 332 331 330 327 328 328 330 332 333 333 332 331 331 330 330
332 338 342 345 344 345 345 343 344 344 341 341 342 341 340 338 335 336 334 333 333 334 334 332 332 333 333 332 331 330 326 326 328 327 328 330 331 333 331 331 331 329 328
327 336 342 343 344 344 342 342 342 343 343 342 341 340 339 337 335 334 334 333 333 333 333 332 331 331 330 330 330 327 325 324 326 325 326 327 328 330 331 330 329 328 328
325 333 341 343 343 341 339 340 339 341 341 340 339 339 338 337 335 333 332 332 332 334 332 330 329 330 329 330 326 326 325 324 321 324 324 325 325 326 328 330 331 328 327
323 329 341 341 340 340 339 338 337 336 338 337 338 338 337 336 335 333 331 331 333 332 329 328 327 328 328 327 324 323 322 320 320 323 324 324 323 323 324 327 328 329 330
320 328 339 340 339 340 339 336 335 334 337 336 336 337 336 335 334 333 332 332 330 329 327 327 327 327 325 325 322 321 320 318 319 321 322 322 322 322 322 325 326 326 328
319 333 340 339 338 338 337 333 332 332 334 335 333 333 334 334 333 333 330 330 329 328 327 327 326 326 325 323 322 321 321 319 318 318 322 321 320 321 321 323 322 322 324
327 335 339 337 336 337 331 329 328 326 329 330 331 331 332 332 332 331 329 328 328 327 326 326 325 324 323 323 319 319 320 321 319 318 319 321 321 321 321 321 321 320 321
330 334 338 336 336 336 332 330 330 329 329 329 330 330 331 332 332 330 329 327 327 325 325 324 324 322 322 323 316 315 311 315 318 319 317 318 320 320 322 322 321 320 319
330 334 337 335 336 335 333 331 329 330 329 326 327 329 330 330 330 330 329 326 325 325 324 324 323 322 319 321 319 315 310 308 312 317 316 317 318 318 317 321 322 320 320
328 335 336 336 334 334 333 329 326 324 323 325 325 328 329 330 329 329 327 326 325 325 324 323 324 323 321 317 320 320 317 314 309 308 315 317 319 318 318 320 318 319 320
328 334 336 335 333 333 332 330 326 324 325 325 326 326 326 327 329 329 326 325 324 324 323 323 323 322 322 319 318 318 316 317 316 312 308 313 316 318 318 319 319 318 319
327 333 335 333 332 331 331 329 328 325 324 324 324 323 325 323 323 324 325 324 324 323 321 322 323 323 322 321 320 319 317 315 315 313 312 313 313 316 317 318 318 319 319

GFSSE_sfc_thetae_087.txt.gz
Theta_e
343 347 350 352 353 352 352 351 351 352 353 354 354 354 355 355 355 355 355 355 356 357 358 356 355 354 353 352 353 352 351 350 349 350 350 351 351 351 351 350 349 346 350
345 348 349 351 352 353 352 351 351 352 354 354 354 355 355 354 355 354 354 355 356 357 356 354 353 353 351 352 351 350 350 349 348 348 349 350 351 351 350 349 348 346 349
345 348 349 349 352 353 353 352 352 353 354 354 354 354 355 354 355 354 353 354 355 357 356 354 353 352 352 350 349 349 348 348 347 346 347 343 344 350 349 348 348 348 347
346 347 348 349 350 352 352 352 352 354 354 354 354 354 354 354 354 354 352 352 355 356 355 353 352 351 350 348 347 347 347 346 346 345 342 342 344 348 348 347 347 347 346
343 346 348 348 348 350 351 352 351 352 353 353 353 354 355 354 353 353 351 352 354 355 355 352 352 351 348 346 345 345 345 344 343 341 339 340 342 346 347 346 346 346 345
340 346 344 345 347 349 350 350 351 351 350 350 351 353 354 353 353 352 350 351 354 354 353 353 352 349 345 344 344 344 342 341 340 337 338 342 340 346 346 345 345 344 343
341 342 344 343 346 348 350 350 350 350 349 349 350 351 352 352 352 350 349 349 351 351 349 350 349 346 344 343 343 342 340 339 337 337 337 338 340 345 345 344 344 344 343
342 342 342 345 346 347 348 347 347 348 348 348 349 350 351 350 348 347 347 345 346 344 344 345 344 344 343 343 342 340 337 339 337 337 337 337 342 344 344 342 342 341 341
345 341 340 342 345 344 343 343 344 346 347 347 347 347 348 346 343 344 344 342 340 340 340 341 342 343 343 341 340 337 335 337 335 336 337 337 342 343 343 341 340 339 339
345 341 339 338 340 339 339 341 342 343 343 344 345 343 343 342 343 342 340 340 341 338 337 339 340 341 341 338 337 334 334 336 335 334 334 337 342 342 342 341 339 338 337
343 343 340 339 339 339 338 341 343 344 343 342 342 340 337 338 338 339 335 337 338 334 337 338 338 337 336 336 334 334 332 331 333 333 335 339 342 343 341 340 338 337 336
337 342 341 341 341 341 344 338 337 341 338 338 339 336 337 335 335 336 333 336 336 336 336 337 337 335 334 331 330 331 328 328 330 332 335 337 341 341 341 339 338 337 335
338 342 341 340 342 341 339 338 338 338 338 337 336 335 337 336 333 334 333 334 333 335 334 335 334 334 333 331 328 327 328 330 330 332 334 335 339 339 339 338 337 335 333
337 340 341 340 342 340 338 340 339 339 337 336 335 336 336 333 331 328 327 328 331 332 333 333 332 333 332 331 329 328 327 328 327 329 332 332 335 336 336 336 336 334 331
330 339 340 340 341 340 336 336 336 338 338 337 335 336 336 332 331 329 326 328 331 332 333 331 331 332 332 331 329 329 326 326 327 329 329 330 331 333 333 334 333 331 330
316 337 341 340 340 340 336 334 334 335 335 335 335 335 335 334 331 330 329 328 329 332 334 332 331 330 331 331 329 328 325 325 325 327 327 328 328 330 331 331 329 330 330
314 325 340 339 340 339 336 334 333 333 334 333 334 334 335 334 333 330 330 330 330 331 331 330 328 328 328 330 329 327 325 324 324 325 325 325 326 326 328 330 330 330 328
309 324 340 340 337 336 335 333 332 332 332 331 332 333 333 333 334 331 330 329 330 330 329 328 328 326 327 327 326 325 322 324 323 323 324 324 322 323 325 327 328 329 329
308 324 337 337 335 334 334 332 330 331 330 329 330 331 332 331 331 330 328 328 330 329 328 326 324 325 326 326 326 323 318 320 322 323 322 321 320 319 320 325 325 325 328
308 327 336 336 334 332 333 330 327 329 331 328 328 329 334 331 331 328 326 326 328 326 324 324 325 325 325 325 326 322 317 318 319 321 320 321 320 319 321 322 322 322 324
307 333 335 333 334 331 329 326 325 324 329 326 326 328 328 328 329 325 326 328 327 325 326 325 325 324 323 324 319 317 317 315 314 318 319 319 318 319 320 321 321 320 321
315 334 334 333 333 330 329 327 323 323 327 323 324 326 330 327 327 326 327 327 326 326 325 325 324 323 323 323 317 315 310 313 316 314 318 318 316 319 319 321 320 319 319
326 333 332 332 332 329 328 327 325 323 322 321 323 324 328 329 328 327 327 327 326 326 324 324 324 322 320 322 320 314 309 307 312 314 314 317 317 318 319 320 319 318 318
331 333 332 332 331 328 327 325 324 322 320 320 322 325 325 326 328 328 328 327 326 326 325 324 324 323 321 318 318 318 316 314 309 307 313 314 316 317 316 319 318 319 318
329 332 331 331 331 329 327 325 322 319 319 319 321 322 323 325 326 325 325 325 325 325 325 325 324 322 322 320 318 316 313 314 314 310 306 309 313 315 315 317 319 319 319
327 331 331 330 330 328 326 324 323 320 319 319 319 320 320 322 324 325 325 325 325 325 324 324 324 323 321 321 320 318 315 313 312 311 308 309 310 312 314 315 316 316 316

GFSSE_sfc_thetae_090.txt.gz
Theta_e
342 348 350 352 352 352 351 351 351 351 352 353 354 355 356 355 355 355 355 355 355 357 358 355 355 355 354 353 354 352 351 350 349 350 351 352 351 351 350 350 349 347 351
344 349 348 351 352 352 352 351 351 352 353 354 354 354 354 355 354 355 355 355 356 356 356 354 355 354 352 352 350 350 349 348 348 349 350 350 350 350 349 349 348 347 349
344 348 350 349 351 352 352 352 352 354 354 354 354 354 354 354 354 354 354 355 355 357 355 353 353 353 352 351 349 349 348 348 347 348 348 343 345 348 349 348 348 348 348
344 347 348 349 350 351 351 351 352 354 353 354 354 354 354 354 354 353 353 353 355 356 355 353 353 352 350 349 348 347 347 346 345 345 342 342 345 348 348 347 347 347 347
344 346 347 348 349 351 350 350 351 352 352 352 353 354 354 354 354 353 351 351 355 356 355 353 352 350 348 346 345 346 345 344 343 341 336 340 343 347 347 347 346 346 346
343 345 344 345 348 350 350 350 351 350 349 350 351 353 354 354 354 352 351 351 355 354 354 353 352 347 345 344 344 344 343 341 340 338 339 342 340 346 346 345 345 345 344
340 342 344 343 346 348 350 350 349 349 348 349 350 351 352 353 352 351 349 350 352 350 349 349 347 344 344 343 343 342 340 339 337 336 336 338 340 345 346 345 344 344 344
340 341 342 345 346 346 347 347 346 347 347 348 348 349 351 350 349 349 348 347 346 344 343 344 344 343 342 343 341 339 338 339 337 336 337 337 343 344 345 343 343 343 342
340 339 340 342 345 343 342 342 343 345 346 346 346 347 348 347 346 346 346 345 344 342 341 342 341 341 341 340 339 337 336 337 335 335 337 338 343 344 345 343 342 341 340
338 338 338 338 339 339 341 340 342 343 344 344 345 344 343 344 344 343 342 342 341 341 340 340 339 339 339 338 337 335 335 336 335 335 335 337 343 343 343 341 340 339 338
338 336 337 337 336 336 337 341 342 343 342 341 342 341 338 340 339 339 338 340 337 337 338 338 337 335 336 336 335 334 334 334 333 334 333 339 342 343 342 341 340 339 338
336 335 336 336 336 336 341 337 337 341 339 339 339 337 337 335 335 335 335 336 334 334 336 337 337 335 335 334 333 333 329 330 332 332 335 337 342 343 342 340 340 338 337
338 338 337 337 337 337 338 335 335 339 336 335 335 333 333 334 336 332 330 333 331 334 333 334 334 334 333 331 332 328 327 329 330 331 335 336 341 342 342 340 338 337 336
337 339 339 339 339 339 339 336 335 336 335 334 333 334 335 333 333 332 332 331 331 330 330 330 331 333 332 332 330 327 327 328 330 330 333 333 337 340 341 340 338 336 334
334 339 339 340 340 340 338 337 336 336 335 334 332 335 335 332 329 330 328 330 331 331 331 329 329 332 332 331 329 327 326 326 329 331 332 331 333 337 339 338 337 335 332
334 338 339 338 341 340 338 337 336 337 336 333 333 335 333 332 329 328 326 329 330 330 331 330 328 329 331 331 329 327 325 326 327 328 329 329 329 332 335 336 336 334 332
312 336 338 338 339 339 337 337 335 334 335 334 333 333 333 331 329 327 326 326 329 330 330 331 328 328 327 330 328 326 326 325 326 326 326 326 326 326 328 331 332 332 330
309 330 339 339 338 337 336 336 334 332 333 333 333 333 333 332 331 329 328 326 328 331 330 329 328 326 324 325 326 324 325 324 325 325 325 324 323 324 325 327 329 330 330
306 317 337 338 337 336 334 335 333 331 331 330 332 332 331 332 331 330 328 328 328 329 329 327 326 325 323 323 325 325 323 322 323 325 323 322 321 320 320 325 326 325 328
308 319 336 337 337 335 334 332 330 330 329 332 329 331 330 331 329 329 328 327 330 329 327 326 325 323 323 324 327 325 318 321 322 322 322 322 319 319 319 321 322 321 324
307 325 334 335 334 333 331 328 327 327 328 326 328 327 329 330 329 328 325 327 330 327 325 324 323 322 323 325 323 318 316 319 320 320 320 319 318 319 318 320 320 319 321
305 323 333 333 332 333 331 330 327 326 326 329 324 324 326 325 326 326 326 326 327 325 324 324 323 322 321 325 319 315 309 312 314 317 317 317 317 317 318 319 319 318 318
306 327 332 332 331 332 330 325 323 321 321 323 325 321 323 325 325 326 327 327 326 325 323 324 323 322 320 321 322 315 309 307 311 313 313 316 314 315 317 319 319 319 318
308 327 332 333 331 329 327 325 323 322 320 322 325 320 321 324 324 325 327 326 326 326 324 323 324 323 323 318 319 320 316 314 308 306 311 313 316 315 315 317 318 318 318
320 329 332 332 329 328 328 325 323 320 318 321 320 319 319 320 323 325 326 326 325 325 325 324 324 322 323 320 317 316 314 314 313 309 307 309 312 316 316 317 317 317 317
310 328 331 330 328 327 326 324 322 320 318 319 319 319 321 322 323 324 326 326 325 325 324 324 324 323 322 321 319 317 315 313 312 310 308 308 310 311 313 316 316 317 317

GFSSE_sfc_thetae_093.txt.gz
Theta_e
340 346 350 351 352 352 351 350 350 351 353 354 354 355 356 356 356 355 354 355 355 357 356 354 354 355 356 354 354 353 352 351 350 351 351 351 351 350 350 351 350 347 350
343 347 348 350 352 352 352 351 350 351 353 354 354 354 355 355 355 355 355 355 355 357 355 354 354 354 352 353 351 351 350 349 348 350 350 350 349 348 349 349 348 347 349
343 348 348 349 351 352 352 351 352 353 353 353 354 354 354 354 354 354 354 354 355 357 355 353 352 352 352 351 349 349 348 348 348 348 349 343 344 348 348 348 349 349 348
345 347 347 349 350 351 351 351 351 353 353 353 353 354 354 354 354 354 353 353 355 356 353 353 353 352 351 348 346 348 347 347 347 347 342 344 343 347 347 347 347 347 347
344 347 348 348 349 350 350 350 351 352 351 351 352 353 354 354 354 354 352 352 355 355 354 351 351 350 348 346 346 346 345 345 344 341 338 341 342 346 347 347 346 346 346
343 346 345 346 348 349 350 350 350 350 349 350 351 352 353 354 353 353 351 352 355 355 353 353 352 347 345 343 345 345 343 342 340 337 337 343 341 346 347 346 346 346 345
341 342 345 344 346 349 350 350 349 348 348 349 350 351 352 353 352 351 349 352 352 351 349 348 347 345 344 344 344 343 341 339 336 335 335 336 340 346 346 346 345 345 345
339 342 343 346 346 347 347 347 346 346 347 347 348 349 351 351 350 349 348 348 347 346 345 345 344 343 343 343 342 339 338 339 337 333 335 336 344 345 345 344 344 344 344
339 340 341 343 345 344 342 343 343 344 345 346 346 347 348 347 346 347 347 347 346 343 343 343 342 342 342 341 339 335 337 337 334 334 336 338 344 345 344 343 343 342 342
335 336 338 341 342 342 342 341 341 343 343 343 345 344 343 344 345 345 345 345 344 342 342 342 341 339 340 338 336 335 334 336 334 333 335 337 344 345 345 343 342 341 341
333 332 337 339 340 340 341 341 342 344 343 343 343 342 339 341 340 341 340 341 341 339 339 340 339 338 336 335 335 335 334 333 333 333 334 340 343 344 344 342 341 340 339
331 332 334 335 336 335 339 338 338 341 341 340 339 338 338 336 335 335 337 338 338 336 338 336 336 333 334 333 334 335 331 331 332 332 335 339 343 343 342 340 340 338 338
334 334 334 333 335 336 337 338 339 341 335 335 335 335 333 334 336 330 332 332 330 333 331 334 332 331 330 332 332 332 329 330 330 331 334 336 342 343 342 340 339 339 337
334 335 334 334 334 335 336 336 337 337 337 334 332 332 335 335 334 332 331 332 328 331 330 331 332 332 332 331 332 330 328 328 328 329 333 334 337 342 342 341 340 339 337
329 336 335 334 334 334 334 334 334 336 336 334 331 334 336 333 331 332 332 330 329 329 328 326 329 330 329 331 331 329 327 327 329 329 331 332 333 339 340 340 339 338 336
322 334 336 336 336 336 336 334 333 333 334 332 331 335 335 332 330 330 328 329 328 329 329 326 327 328 328 330 329 328 327 327 328 328 328 329 330 333 336 338 338 336 335
313 332 336 337 338 337 336 335 333 334 333 332 332 335 333 332 328 328 327 328 328 329 329 325 324 326 329 330 328 327 326 326 326 326 328 326 327 328 330 335 336 336 333
305 325 337 338 339 337 336 336 335 334 334 333 332 334 333 330 328 327 326 327 328 329 329 328 325 326 327 328 325 325 325 326 325 325 325 325 323 325 326 329 331 333 332
303 311 332 337 336 337 336 336 334 333 334 333 332 333 333 330 328 327 326 326 328 327 327 328 326 326 324 325 324 325 324 323 325 326 324 323 321 321 321 324 325 326 329
303 304 326 336 337 337 334 332 331 330 330 332 332 332 332 332 330 329 328 326 327 326 327 327 325 326 323 324 324 322 321 322 324 324 323 323 320 320 320 321 322 323 325
301 302 319 333 335 335 332 331 330 329 329 330 330 331 330 331 330 329 328 326 326 326 325 326 326 323 321 324 323 318 317 320 322 322 322 321 319 319 318 319 318 317 321
303 305 317 331 334 334 333 332 330 332 330 330 330 330 331 328 328 328 327 326 327 327 326 324 324 321 322 324 320 315 310 313 316 319 320 320 318 318 318 318 318 317 317
305 306 323 329 333 334 333 327 323 324 325 325 326 328 327 326 326 327 325 328 327 326 324 324 323 322 320 323 318 315 309 308 312 314 315 317 316 316 317 318 318 317 317
306 309 323 330 332 333 331 327 324 325 324 326 328 328 324 324 324 325 324 326 327 326 323 323 324 323 321 319 321 320 317 315 310 307 312 314 314 315 315 317 317 317 317
306 308 322 330 331 332 329 328 325 323 323 321 322 324 321 322 324 326 327 326 325 325 324 324 324 323 322 320 320 317 315 315 314 311 307 309 312 314 315 316 317 318 317
305 309 322 328 329 330 328 326 325 321 319 320 320 321 319 321 323 325 325 325 326 324 324 323 323 323 323 322 320 319 315 313 311 310 308 309 310 311 314 315 316 317 317

GFSSE_sfc_thetae_099.txt.gz
Theta_e
341 351 350 352 353 352 351 351 351 353 355 355 355 354 354 355 354 354 354 355 356 358 358 357 357 355 354 355 356 354 353 352 352 352 352 352 352 350 351 352 350 348 350
344 352 349 351 352 352 352 351 351 353 356 356 355 354 354 354 354 354 354 355 356 358 359 356 355 356 356 355 355 352 351 350 349 350 351 353 352 351 351 350 349 349 350
346 352 352 349 351 352 352 351 352 354 356 356 356 355 354 354 354 353 354 354 356 358 358 355 354 355 356 353 351 351 350 349 348 349 350 348 348 351 350 349 349 350 350
347 351 352 349 351 351 351 351 352 354 355 356 356 356 355 354 354 354 353 353 356 357 357 355 354 354 353 349 349 349 348 348 347 348 348 347 346 350 349 348 349 348 348
347 350 351 348 349 350 350 351 351 352 352 353 354 355 356 355 355 354 353 353 356 356 356 354 355 354 349 346 347 347 347 347 346 346 348 347 346 348 349 349 349 348 347
347 349 348 346 347 349 350 350 351 350 349 350 352 354 355 355 355 353 352 354 356 356 356 355 354 351 346 345 345 346 346 345 343 348 347 346 346 348 348 348 347 347 346
347 350 351 344 347 349 350 350 349 348 348 349 350 352 353 354 353 352 351 352 354 354 353 353 351 347 345 344 345 344 343 342 346 347 346 346 345 348 348 347 347 346 346
347 349 351 347 347 347 348 348 346 346 347 347 348 350 351 351 351 350 350 350 350 350 349 349 347 346 345 344 343 342 340 341 344 345 346 346 345 347 348 346 346 345 345
346 348 350 351 350 344 343 343 343 344 345 346 346 347 349 348 347 348 349 348 349 348 347 346 345 344 344 344 341 338 338 339 343 345 345 346 345 346 347 346 345 345 344
343 345 346 348 348 350 351 341 342 342 343 343 345 344 344 345 346 346 346 347 347 344 345 343 343 343 343 341 339 337 337 338 342 344 346 346 343 345 346 345 344 344 344
340 339 342 344 345 347 347 348 344 343 343 342 344 343 342 350 351 350 346 344 342 340 341 341 341 340 339 338 337 337 337 342 340 340 345 340 344 345 345 346 344 343 343
337 338 339 340 342 343 342 344 348 349 348 348 349 350 350 350 350 348 345 341 340 338 339 338 338 338 337 344 342 338 343 341 339 337 344 336 343 345 345 344 343 343 342
337 338 338 337 340 340 340 340 343 344 344 345 345 345 349 349 348 348 349 347 348 341 346 341 342 343 343 343 342 342 340 339 337 337 339 335 340 345 344 343 342 342 341
338 338 340 339 336 337 338 338 340 340 341 342 341 343 342 343 344 344 343 345 346 344 342 344 342 343 341 341 341 340 337 336 334 335 337 333 336 343 344 343 342 341 340
317 333 340 340 338 337 336 337 338 339 339 339 340 341 343 341 340 340 340 340 342 342 340 340 339 339 339 339 340 338 336 335 332 334 336 332 333 340 343 343 342 341 340
310 313 336 340 340 339 339 337 336 338 339 338 338 339 342 340 339 338 336 336 336 337 337 336 334 336 336 337 335 335 334 334 330 331 333 336 330 334 339 343 342 341 340
307 308 313 334 342 340 339 339 338 338 337 336 336 339 340 340 339 337 335 335 335 335 334 332 331 332 334 336 335 332 334 331 329 329 332 332 333 328 333 336 338 339 338
313 312 311 312 336 341 340 338 339 338 337 335 335 337 339 338 337 335 334 334 336 333 331 329 329 329 330 329 329 329 334 330 329 328 329 331 340 337 331 332 333 336 336
315 315 313 312 318 337 340 341 340 338 337 336 336 335 337 337 334 334 333 333 336 333 331 329 328 328 328 328 328 329 330 329 328 328 327 329 336 337 338 329 328 330 333
314 314 315 314 313 329 339 340 339 338 339 339 336 335 336 336 333 332 332 332 333 332 329 329 326 328 329 328 327 327 329 329 329 327 327 327 329 335 336 336 336 332 327
312 312 313 313 316 316 336 335 332 330 333 335 336 335 335 334 332 330 330 330 331 330 329 328 327 326 326 328 324 321 322 326 325 327 327 326 324 325 330 334 334 334 331
308 310 310 312 314 314 327 335 335 332 333 336 336 334 335 333 331 329 329 329 329 328 328 328 326 324 325 327 321 318 313 316 321 325 326 325 324 324 324 329 331 332 332
306 307 307 309 311 314 318 334 335 334 334 331 333 332 333 334 331 330 331 330 328 329 327 327 327 324 322 325 324 319 311 311 314 319 322 325 323 322 323 324 328 328 328
304 304 304 306 310 314 319 329 331 327 325 331 333 332 332 330 329 328 330 331 329 328 327 329 328 326 325 321 323 326 322 321 314 310 316 320 322 322 321 323 326 326 326
300 300 302 304 306 312 319 326 333 329 332 335 334 330 330 332 329 323 322 328 328 328 329 330 326 326 325 324 322 319 318 319 320 316 311 314 317 320 321 322 324 325 326
298 298 299 301 303 308 320 327 332 330 331 331 330 329 331 329 324 324 326 328 329 328 329 330 328 326 325 325 324 321 319 317 317 319 316 315 314 315 317 319 320 322 325

GFSSE_sfc_thetae_102.txt.gz
Theta_e
345 355 351 353 353 353 352 353 354 354 354 354 354 355 355 355 355 354 355 356 356 358 359 358 358 357 355 354 355 355 354 353 353 353 353 353 351 351 351 352 351 349 351
349 357 349 351 352 353 353 353 354 354 355 355 354 355 355 355 354 354 355 356 357 358 358 358 357 356 355 356 356 353 352 351 351 351 352 353 352 351 351 351 350 349 351
349 356 355 350 351 352 353 353 355 356 357 356 355 355 355 355 354 354 354 355 356 358 359 356 354 355 357 356 353 351 351 350 349 350 352 350 350 351 350 350 350 350 350
349 355 356 350 350 352 352 352 353 357 357 357 356 355 356 355 354 354 354 354 356 358 358 355 354 357 356 352 351 349 349 349 349 349 349 347 347 350 350 349 349 349 349
350 353 353 349 349 351 351 351 352 354 355 355 355 356 356 355 355 355 353 354 357 358 358 355 356 356 350 349 348 348 348 347 347 347 347 347 347 349 350 349 349 349 348
350 352 349 346 348 349 350 350 351 351 351 352 354 355 356 355 355 354 353 355 358 357 357 356 356 351 347 346 347 347 346 345 345 348 346 346 347 349 349 349 348 347 346
351 353 355 343 347 349 350 350 350 349 349 351 352 353 354 355 354 353 351 354 355 356 355 354 353 348 346 345 346 345 344 343 348 346 345 347 348 350 349 348 347 346 346
353 354 356 348 347 347 348 348 347 346 347 348 350 351 353 353 352 351 351 351 352 353 351 351 348 346 345 345 345 343 342 342 345 345 344 344 347 349 349 347 346 345 346
354 354 355 356 352 345 344 344 343 345 345 346 347 348 350 349 349 349 350 350 349 348 348 349 346 345 345 344 343 340 339 341 346 344 343 344 346 348 348 347 345 346 346
351 354 354 353 353 355 355 343 343 343 344 344 346 346 345 346 347 348 348 348 348 347 347 345 343 344 343 342 340 338 338 339 345 345 345 343 344 346 346 346 345 345 345
348 351 350 350 350 351 354 352 345 344 343 343 345 344 343 352 353 353 348 345 347 343 344 342 341 342 341 340 339 338 337 346 347 346 346 341 344 346 346 346 344 345 344
344 347 350 350 348 348 346 349 352 353 352 352 351 352 351 352 352 348 346 343 343 341 341 341 339 339 340 348 345 339 345 344 347 345 343 338 344 345 344 344 344 344 343
339 345 347 349 351 351 347 348 347 349 350 351 353 352 352 351 352 350 349 350 351 343 347 344 345 346 345 345 346 343 343 344 344 342 340 335 340 344 343 343 342 342 342
320 332 344 347 349 350 348 346 346 345 346 345 347 350 350 349 349 349 347 347 348 348 346 346 344 345 345 344 344 343 343 342 340 339 338 333 333 342 343 343 343 343 342
315 318 329 344 347 348 348 346 346 345 346 347 346 346 346 346 346 347 346 347 347 346 347 345 344 343 344 342 343 341 340 341 340 339 337 332 332 338 341 343 344 343 341
315 316 319 327 343 346 345 346 345 345 346 344 343 343 345 345 347 343 344 344 344 345 345 344 343 343 343 342 340 340 340 340 340 340 336 336 329 333 338 343 344 343 342
320 321 323 321 328 341 344 345 344 343 344 343 342 344 343 345 346 344 341 341 343 344 344 344 343 342 340 339 339 339 339 338 338 339 336 334 338 327 332 337 340 341 341
321 322 323 323 323 326 339 341 344 344 344 343 343 342 343 343 343 343 339 340 340 341 339 338 336 334 334 337 337 338 337 337 336 338 333 332 336 334 330 330 334 337 338
319 321 323 325 325 323 326 337 341 345 345 344 342 342 344 343 342 342 339 339 340 338 337 335 333 333 332 335 335 335 336 334 334 333 329 331 332 333 334 330 330 330 333
318 320 321 322 324 326 324 328 337 338 343 344 342 341 342 343 341 341 340 338 338 335 337 335 333 332 331 331 330 328 331 334 334 331 328 329 330 331 333 334 333 332 328
318 317 317 319 321 322 322 319 330 333 338 339 341 342 342 342 341 340 338 336 335 334 334 333 331 328 329 332 328 325 326 330 329 329 330 328 327 329 332 338 337 336 334
315 316 315 316 317 318 320 321 325 332 334 336 340 343 341 340 341 338 336 333 334 333 332 333 332 326 328 331 323 321 316 318 327 328 328 328 327 327 329 333 335 335 335
312 312 312 313 314 316 318 320 322 331 334 336 336 339 340 340 339 337 335 332 332 333 332 333 331 328 324 327 328 324 315 316 317 323 325 327 325 324 326 326 327 332 333
309 309 308 308 310 311 315 317 321 322 328 332 334 336 337 336 335 335 332 331 331 332 332 333 332 331 329 323 326 329 330 323 318 312 317 325 328 325 325 324 325 326 330
306 305 302 303 305 306 308 310 318 321 332 333 334 333 333 333 333 334 332 332 331 332 331 333 334 334 332 327 325 324 325 325 327 321 313 316 322 324 327 327 326 325 325
305 303 300 299 300 303 305 308 313 323 327 332 332 331 330 331 331 332 333 334 332 331 330 329 331 334 332 330 327 326 325 322 322 320 318 318 317 319 325 324 324 325 324

GFSSE_sfc_thetae_105.txt.gz
Theta_e
343 354 351 353 353 354 354 355 355 353 354 355 355 355 356 356 356 356 356 356 356 358 359 358 358 357 355 354 354 354 353 353 353 354 353 353 351 352 352 352 351 348 351
350 356 349 352 353 354 354 355 355 354 354 355 355 355 355 356 355 355 356 356 357 359 359 356 356 356 355 356 355 354 353 352 352 352 353 353 351 351 351 352 349 349 351
350 359 354 350 352 354 354 355 355 355 355 355 355 355 355 356 355 355 355 356 357 358 358 356 356 356 356 356 353 352 352 351 351 351 352 349 349 351 350 349 350 350 351
350 355 355 350 351 353 353 354 355 356 356 356 355 355 355 355 355 354 355 355 357 358 358 357 355 356 357 354 351 350 350 350 349 350 349 347 347 351 350 349 349 350 350
347 353 356 349 349 351 352 353 354 355 355 355 355 356 356 355 355 355 354 354 356 358 358 356 355 356 353 351 349 348 348 348 347 348 347 344 346 349 350 350 349 349 348
349 352 349 347 348 350 351 352 353 353 353 353 354 355 356 355 355 354 353 354 357 359 358 356 357 354 349 348 348 347 347 346 345 347 345 345 347 350 350 350 349 347 347
352 353 356 345 347 349 351 351 351 351 351 352 353 354 354 354 354 353 352 354 356 357 356 354 352 349 347 346 347 346 345 344 348 343 343 345 348 350 350 348 348 347 345
355 354 357 349 348 347 348 348 348 348 350 350 351 352 354 353 352 351 351 353 353 353 352 352 350 348 346 346 345 344 343 343 345 344 342 342 348 349 349 348 346 346 346
355 357 357 358 352 347 346 345 344 346 347 348 349 350 351 350 350 350 351 351 352 351 349 350 347 346 345 345 344 342 340 342 345 342 341 344 347 349 349 348 346 346 346
352 354 356 357 355 355 353 345 344 344 345 346 347 347 347 348 348 348 348 350 350 349 347 348 346 345 344 343 341 340 339 339 345 343 341 341 346 348 348 347 346 345 345
348 351 355 355 355 355 355 351 346 345 345 344 346 345 344 354 354 353 348 346 347 344 344 343 341 342 341 341 340 339 339 345 343 343 342 342 344 348 347 347 346 344 345
342 347 351 352 352 353 352 355 353 351 350 349 349 350 351 352 352 350 348 344 345 343 343 342 341 339 340 346 345 340 344 343 346 345 344 339 342 347 348 345 343 344 343
327 346 349 352 352 351 351 351 351 352 351 352 352 352 352 351 352 349 349 349 351 344 348 346 346 347 346 344 346 345 343 344 345 344 340 337 341 347 346 343 344 345 342
318 328 345 348 351 353 353 350 351 350 352 350 351 355 353 350 351 350 346 348 350 348 347 347 346 346 344 344 345 345 345 344 342 341 337 334 336 342 345 343 342 343 341
316 319 323 337 346 350 351 350 350 349 349 350 350 352 350 348 350 347 346 345 347 345 347 346 343 344 344 344 344 343 343 343 343 338 340 333 333 335 342 342 343 342 342
318 319 321 323 330 342 347 350 348 348 348 348 348 348 349 349 348 346 345 344 343 345 348 346 345 344 344 344 344 343 342 343 341 341 339 337 330 331 338 341 342 342 343
320 322 324 327 325 328 340 344 346 346 346 344 345 348 346 346 349 349 344 344 343 345 348 346 346 346 343 342 341 343 341 342 340 339 340 338 335 327 331 335 337 336 343
320 322 325 325 328 329 328 333 341 342 346 344 344 346 346 346 349 348 344 342 344 344 345 344 344 342 340 340 339 338 341 340 340 339 339 339 336 336 331 331 328 333 340
320 322 323 325 326 328 329 328 332 343 344 345 345 346 347 346 346 347 344 342 344 342 343 341 341 340 338 338 337 338 339 338 338 337 336 336 335 335 337 330 328 328 331
321 321 322 322 324 326 326 327 327 329 341 344 343 346 348 348 347 347 342 343 342 338 340 337 336 337 336 336 334 333 335 337 337 334 334 334 333 334 335 335 331 330 328
319 319 319 320 321 322 321 322 323 321 331 338 340 344 348 346 348 344 342 343 341 336 339 336 335 334 333 335 331 329 332 334 334 333 333 332 330 328 331 331 330 331 331
316 317 317 317 318 318 319 320 322 324 326 332 339 342 345 343 344 340 341 340 340 336 338 335 334 331 332 332 326 323 317 320 327 331 331 329 328 327 327 330 330 331 331
313 313 313 313 314 316 318 318 320 323 325 327 337 338 340 344 344 341 341 340 338 337 335 334 334 330 327 329 329 324 316 316 319 326 329 329 328 327 327 326 329 331 334
312 313 312 312 311 313 315 314 314 316 319 322 330 335 338 342 340 340 342 338 336 337 334 334 334 332 332 325 328 329 331 327 320 315 322 327 328 326 326 326 326 327 329
311 310 310 309 309 310 310 310 308 311 318 324 327 335 338 340 339 339 340 337 334 334 334 332 333 333 334 330 326 325 329 328 328 322 314 319 324 327 327 326 326 326 327
309 309 308 307 306 306 304 304 304 306 311 319 325 331 336 339 337 336 335 335 335 336 333 332 334 336 335 333 332 329 327 324 322 323 321 319 319 322 325 326 327 326 326

GFSSE_sfc_thetae_108.txt.gz
Theta_e
348 350 351 353 355 355 355 354 353 354 354 355 355 355 355 356 356 355 355 356 357 358 360 359 358 358 356 354 353 353 353 353 353 354 353 353 353 353 353 352 351 347 351
353 350 350 352 354 355 356 354 353 353 355 356 355 355 355 356 356 356 356 356 357 359 359 358 357 357 356 356 353 353 351 351 351 352 352 353 354 352 352 350 350 349 350
354 352 351 350 352 354 355 355 355 354 355 356 355 356 356 356 356 356 356 355 357 359 359 356 356 356 356 355 353 352 351 350 350 351 351 346 347 352 350 350 349 350 350
351 356 351 350 351 353 353 354 355 356 355 355 355 356 356 355 355 355 355 355 357 358 358 356 355 357 356 354 351 350 350 349 349 349 347 346 345 352 351 351 350 350 350
347 357 353 348 350 352 352 353 354 355 354 354 354 356 356 355 355 355 354 354 356 358 358 358 356 356 354 351 349 348 349 348 347 348 343 344 345 350 351 351 350 350 348
350 354 346 346 348 351 351 353 353 353 353 352 353 355 356 355 355 354 353 354 356 358 358 357 356 354 350 349 347 347 347 346 345 344 341 344 344 350 351 350 348 347 347
354 354 351 345 348 350 351 352 352 352 351 352 352 353 354 354 354 353 352 353 355 357 356 355 354 351 348 347 347 346 345 344 344 342 340 343 344 349 351 351 348 347 346
356 357 351 349 348 348 348 349 349 349 350 351 351 352 353 353 352 352 351 352 353 353 353 351 350 348 346 346 346 344 343 342 344 342 339 341 345 349 350 350 347 346 346
357 361 356 353 349 347 346 345 345 347 348 349 350 350 351 350 349 350 350 351 352 351 350 350 348 347 345 345 344 342 340 341 341 341 341 341 345 348 349 348 347 346 346
354 356 358 355 352 350 349 345 344 345 346 347 348 348 347 348 349 349 348 349 350 349 348 349 347 345 344 343 342 340 338 340 341 341 340 341 343 351 350 348 347 346 345
349 352 354 352 352 352 351 348 345 346 346 345 347 347 344 352 350 350 347 346 348 345 344 346 345 343 342 341 341 340 339 341 340 339 340 341 344 348 349 347 345 344 345
332 350 352 351 350 352 351 350 348 348 346 347 347 348 350 351 352 350 347 344 345 343 343 343 342 340 339 342 340 339 339 341 339 339 338 340 345 348 350 345 344 343 342
328 346 350 351 349 348 349 351 349 348 347 347 347 347 348 348 349 347 347 346 346 343 346 342 341 343 343 342 341 341 340 340 339 338 338 337 342 347 348 346 345 343 341
328 326 348 350 350 349 349 348 351 351 348 347 347 348 348 346 346 347 345 346 347 346 344 343 343 343 342 342 341 341 340 339 339 337 336 335 339 344 346 346 344 343 341
322 322 324 330 345 349 347 349 348 347 349 348 350 349 347 346 345 345 344 344 345 345 344 342 342 342 341 340 341 340 339 339 338 337 334 333 334 336 343 344 344 342 341
320 322 325 328 329 329 346 346 346 348 347 349 348 348 349 348 344 343 343 341 344 343 343 342 341 339 339 339 338 338 338 338 338 336 333 332 330 331 337 343 342 341 341
321 323 326 328 331 331 330 334 345 345 346 345 346 347 346 346 346 344 342 340 340 342 340 342 340 341 339 338 337 337 337 338 337 336 335 332 330 327 329 336 339 338 338
320 323 325 325 328 330 331 330 329 331 344 344 344 345 346 345 344 343 342 339 341 340 341 341 340 338 337 336 335 336 336 336 336 335 334 334 333 333 328 329 333 337 338
319 322 323 325 325 326 329 329 329 329 327 342 343 342 344 343 342 343 342 341 341 339 339 340 338 337 335 334 336 334 334 334 333 335 333 332 331 333 332 328 329 331 332
320 321 321 321 323 324 324 327 327 326 326 327 338 342 343 344 342 342 342 341 340 339 338 339 336 337 335 334 332 332 332 332 333 333 333 332 332 331 331 332 328 327 326
318 317 317 317 318 318 318 318 319 320 323 324 331 337 341 342 342 341 341 340 339 337 336 337 334 333 331 332 328 328 327 329 331 329 329 330 328 328 328 330 330 331 328
315 314 314 313 314 314 315 316 317 317 318 321 324 326 335 338 339 340 340 339 338 336 335 335 333 330 331 332 326 321 316 320 324 328 330 328 327 327 325 327 329 330 330
312 312 311 311 311 312 313 313 314 315 316 318 320 321 324 336 338 339 340 339 336 335 333 334 332 329 327 330 328 319 313 312 315 324 326 325 325 324 323 324 327 329 330
310 311 310 310 309 310 310 308 308 308 308 312 315 320 324 336 336 338 339 338 335 334 332 332 333 330 328 325 327 326 324 321 314 312 319 325 325 324 323 324 326 327 328
308 308 308 307 306 306 306 305 303 302 306 309 313 315 320 324 335 336 337 336 334 333 331 333 332 330 328 325 325 324 324 324 322 316 310 316 322 323 324 323 324 324 327
306 306 304 303 302 303 303 301 299 299 301 303 306 310 314 322 329 334 334 337 336 333 331 331 326 330 328 328 327 325 322 322 320 318 314 313 315 319 323 324 323 323 325

GFSSE_sfc_thetae_111.txt.gz
Theta_e
345 350 351 354 354 354 353 352 352 353 354 354 355 355 355 355 354 355 355 356 358 359 359 357 358 357 356 354 353 352 352 351 352 353 352 354 353 353 353 352 350 349 351
347 350 348 352 354 354 354 352 352 353 354 355 354 355 355 355 354 355 355 356 357 359 358 356 356 355 355 355 351 350 350 350 350 351 352 352 354 352 351 351 349 350 351
347 350 350 350 353 354 354 353 352 354 355 355 355 355 355 354 354 354 354 354 357 358 357 356 355 355 355 354 351 349 348 349 349 349 351 345 348 353 350 350 350 351 351
348 349 349 349 351 353 353 353 352 355 355 355 355 355 355 354 354 354 353 353 356 358 358 355 355 356 355 352 350 348 348 348 347 348 346 346 346 350 350 350 350 350 350
350 348 349 348 349 351 352 352 353 353 353 353 354 355 355 354 355 355 353 353 356 359 359 356 356 356 352 350 348 347 347 347 346 346 340 341 345 349 349 350 350 349 349
348 349 346 345 348 350 351 352 352 352 351 351 352 354 355 355 355 354 352 353 356 357 358 359 356 353 350 348 347 346 345 345 344 343 339 343 337 345 347 348 348 348 347
348 348 346 344 347 349 351 351 351 351 350 350 351 352 353 354 353 352 351 352 354 355 356 355 353 351 348 347 347 345 344 343 343 338 339 333 329 336 344 347 347 347 347
349 349 346 347 347 347 348 349 349 349 349 349 350 351 352 352 351 350 350 350 351 352 352 351 350 348 347 346 345 343 341 341 343 338 338 339 335 339 344 348 347 346 347
349 348 346 346 347 345 344 345 345 347 348 348 348 349 350 349 348 349 349 350 350 350 349 349 348 346 345 344 343 341 339 340 339 337 340 339 341 343 348 349 347 346 345
346 348 346 345 345 343 343 343 344 345 346 346 347 347 346 347 348 348 347 348 349 348 348 348 346 345 343 342 341 339 338 339 339 336 338 340 342 345 349 347 347 345 344
344 344 348 347 346 344 343 344 344 345 345 345 347 346 344 347 347 348 346 345 347 344 344 345 344 342 341 340 340 339 339 338 339 338 335 339 342 341 349 347 346 345 345
334 341 343 346 346 347 348 343 341 344 343 344 345 346 348 346 347 349 345 343 344 343 343 343 342 340 339 339 338 339 336 338 338 337 337 338 343 347 350 347 345 345 344
334 343 343 345 345 347 347 343 342 342 341 342 342 344 344 347 346 346 345 344 343 343 343 342 340 340 339 339 337 337 337 337 336 336 336 337 342 346 346 346 345 345 344
308 336 344 344 343 341 343 347 345 342 341 341 341 342 343 342 341 344 343 343 342 343 341 341 340 339 339 340 339 338 337 337 336 335 334 335 338 344 346 347 347 344 342
310 314 319 335 338 342 341 342 344 344 343 343 342 343 344 342 341 341 342 343 343 343 342 340 340 340 339 339 339 337 338 337 336 335 333 333 334 340 345 345 345 345 343
313 316 317 319 321 323 327 334 339 338 340 343 343 343 344 344 342 341 340 340 342 343 342 341 339 339 339 339 337 336 336 336 336 333 332 330 330 333 337 343 345 344 343
315 316 318 320 320 321 325 324 325 333 340 338 340 341 344 343 341 341 339 338 341 342 341 340 337 338 337 337 335 335 334 335 334 333 331 330 328 327 330 337 342 342 342
315 315 317 319 318 318 319 321 322 324 324 331 338 339 340 342 341 340 338 335 335 340 338 339 337 335 335 334 332 332 333 333 334 333 331 329 328 329 326 329 335 338 339
313 314 314 315 315 316 317 318 319 320 321 323 327 335 339 341 341 340 338 337 336 335 336 336 334 336 333 333 332 331 331 332 332 333 330 330 329 330 330 326 327 330 334
312 312 312 313 312 312 313 315 315 316 318 319 320 324 336 339 341 339 338 338 336 335 332 334 335 334 335 333 333 330 329 332 332 329 329 330 331 329 329 329 326 328 328
309 309 309 309 309 309 309 309 310 311 313 314 316 319 320 333 338 339 338 337 339 337 335 334 334 333 327 331 326 324 323 329 329 328 331 330 329 328 326 327 327 326 328
306 306 306 306 306 306 308 308 308 309 311 313 315 317 318 320 324 337 338 337 338 336 334 333 333 328 327 330 323 321 318 319 323 329 329 327 327 326 324 325 328 329 329
304 304 304 304 304 304 305 305 304 305 306 307 309 311 313 316 319 324 336 337 337 335 334 332 329 329 324 326 325 318 312 310 312 317 324 327 326 324 321 322 325 328 330
302 303 302 302 301 302 302 301 299 298 298 301 303 307 309 311 314 319 325 334 336 334 331 328 322 322 318 323 325 326 319 316 310 311 316 321 325 324 323 322 324 324 328
301 299 300 300 300 300 300 299 297 296 297 300 301 302 305 307 311 315 321 328 331 332 331 323 320 323 326 326 320 324 324 319 316 311 310 315 322 324 323 323 323 324 324
298 297 297 298 298 299 298 297 296 295 296 296 298 299 302 304 307 311 318 325 330 330 330 328 325 326 326 326 326 325 322 320 319 316 310 309 315 320 323 323 322 324 325

GFSSE_sfc_thetae_114.txt.gz
Theta_e
345 349 351 353 353 353 352 352 351 352 353 353 354 355 354 355 355 355 356 356 357 359 360 359 359 357 355 353 352 352 350 350 350 351 352 354 353 353 352 352 350 349 352
347 350 349 352 353 354 353 352 351 353 353 354 354 354 354 354 355 355 355 356 357 359 358 357 356 355 355 354 350 350 350 349 349 349 351 353 353 352 351 351 349 350 352
346 349 351 350 352 353 353 353 353 354 354 354 354 353 354 354 354 354 354 355 357 358 356 355 355 355 355 353 348 348 349 349 348 349 349 345 347 353 351 350 350 350 351
347 348 349 350 352 352 351 351 352 354 354 354 354 354 353 353 353 353 353 353 356 357 356 355 354 354 355 351 348 347 347 348 347 348 344 345 346 352 351 350 350 351 351
347 347 348 348 350 352 351 351 351 353 352 353 353 354 354 354 354 353 351 353 356 358 356 354 354 355 351 349 347 346 346 346 345 346 340 341 343 349 351 351 350 350 348
347 346 345 345 348 350 351 351 351 351 350 350 352 353 354 354 354 353 351 353 356 358 358 356 355 353 349 347 346 345 345 344 344 341 340 341 343 351 350 349 348 348 347
346 345 346 343 346 349 351 351 350 349 349 349 351 352 353 353 353 352 350 352 354 356 356 356 353 350 348 347 346 344 343 342 342 337 336 332 332 347 349 349 348 348 347
344 345 345 346 346 347 348 348 347 347 348 348 349 350 352 351 350 350 349 350 351 351 351 351 349 348 347 345 345 342 341 341 342 337 338 330 331 342 347 349 347 346 347
346 343 344 345 347 344 343 344 344 346 346 347 347 348 349 348 347 348 349 349 349 349 348 348 347 346 346 344 342 340 338 340 336 337 338 335 336 340 345 349 347 346 347
345 342 342 343 344 343 343 342 343 344 344 345 346 345 345 345 346 346 346 347 348 347 347 347 346 345 344 341 340 339 337 338 337 336 337 336 340 343 346 349 348 346 346
343 342 341 341 342 341 342 343 343 345 344 344 345 344 343 347 346 346 345 344 345 343 344 345 344 342 340 339 339 338 337 337 337 337 335 338 341 344 347 346 347 345 345
337 340 343 342 341 341 344 342 341 344 345 346 347 347 347 347 345 347 344 341 343 342 342 342 342 340 339 339 337 338 336 337 337 335 335 337 342 346 343 346 345 344 343
313 339 341 342 342 341 342 340 339 340 339 341 343 345 345 344 346 345 344 343 342 342 342 342 341 341 339 338 335 335 335 336 335 336 336 336 342 345 344 348 346 345 342
321 338 341 341 340 341 341 340 339 339 338 339 340 341 343 343 343 344 344 342 341 342 341 341 341 339 338 338 337 336 335 335 335 335 333 333 338 345 348 347 347 345 343
316 327 333 334 330 335 342 342 343 341 339 339 339 341 342 341 341 343 343 342 341 341 341 340 339 338 338 337 338 336 336 335 335 334 332 332 333 340 344 346 347 346 345
314 316 318 319 320 323 324 325 332 338 338 338 339 339 341 340 340 340 342 341 341 341 341 340 339 338 337 337 336 336 336 336 335 333 332 331 330 333 339 343 345 346 346
314 315 316 317 316 317 317 320 322 324 328 334 339 338 339 341 340 340 339 340 342 342 341 340 338 337 337 336 335 335 335 335 334 332 331 330 329 328 331 337 341 343 344
313 313 312 314 312 312 313 315 317 319 320 323 325 331 337 342 342 339 339 339 338 341 340 339 338 335 335 335 334 332 332 332 333 331 330 329 328 328 326 329 334 339 341
310 310 309 309 309 310 310 311 312 313 315 316 318 320 328 334 338 339 338 338 336 336 338 338 337 335 333 333 333 330 331 331 331 332 329 328 327 326 325 325 328 331 335
308 308 307 307 307 308 308 308 309 310 311 313 313 316 318 319 326 334 337 337 335 333 334 335 336 335 333 333 332 330 330 331 331 330 329 330 328 329 328 326 325 326 327
305 305 305 304 304 304 304 304 305 304 306 308 310 313 315 317 319 319 331 336 334 334 334 332 332 329 329 331 325 322 324 328 329 329 329 328 327 328 330 326 325 324 325
302 302 301 301 301 301 302 302 302 302 304 305 308 308 310 311 313 314 317 325 335 334 332 330 332 329 331 331 328 325 319 321 324 327 329 328 328 329 327 327 328 325 324
299 299 299 299 299 300 300 300 299 299 300 301 301 302 305 306 308 310 312 316 318 331 334 333 329 329 326 326 325 321 314 314 317 320 324 326 325 326 326 323 324 328 328
297 298 298 299 298 299 298 297 295 294 293 297 298 300 301 304 305 308 311 313 316 321 328 333 329 327 321 316 317 319 320 317 311 311 319 325 324 323 324 323 321 325 326
296 295 296 295 295 296 296 295 294 293 294 295 298 299 300 302 304 306 307 309 312 315 321 331 326 319 319 315 314 317 317 321 317 312 309 317 323 324 323 324 322 323 324
295 294 294 293 291 293 294 293 295 293 293 294 295 297 299 302 303 306 307 308 311 315 320 327 327 324 319 318 316 320 320 319 317 314 308 313 317 321 323 322 321 321 323

GFSSE_sfc_thetae_117.txt.gz
Theta_e
343 348 350 352 353 352 352 351 350 351 353 354 355 356 356 356 356 355 356 357 357 358 359 358 357 356 354 350 350 351 350 350 349 351 352 354 353 353 352 351 350 346 350
344 349 349 351 353 353 352 351 351 352 354 354 354 355 355 355 355 355 356 357 357 359 357 357 356 355 354 350 350 349 349 348 348 349 352 353 353 352 350 351 349 348 349
345 350 350 350 352 353 353 352 353 353 354 354 354 354 354 355 354 354 355 356 357 359 358 356 355 355 354 350 348 349 349 348 348 348 350 345 347 351 350 350 350 352 350
346 348 350 350 351 352 352 352 352 354 354 354 353 353 353 354 354 354 354 354 356 357 357 356 355 355 354 349 347 347 347 347 347 347 343 345 347 350 350 350 350 350 351
345 347 349 349 349 351 350 351 351 352 352 352 352 353 353 353 354 354 353 354 356 357 356 354 354 355 351 347 345 345 346 346 345 345 339 342 343 347 349 350 350 351 349
344 346 345 346 348 350 350 350 351 351 349 350 351 352 353 353 353 353 351 354 356 357 356 355 355 352 348 346 345 345 344 344 344 340 338 340 342 347 349 348 348 349 348
343 344 345 344 347 350 350 350 349 349 348 349 350 351 352 352 352 350 349 352 354 355 355 354 353 350 347 346 345 344 342 342 340 336 336 337 339 349 349 348 348 347 347
342 343 344 346 346 347 348 348 347 347 347 348 349 350 351 351 350 350 349 350 351 352 352 351 349 348 347 346 345 342 340 340 341 335 335 330 334 345 350 348 346 346 347
343 341 341 344 346 345 343 344 344 345 345 346 347 347 348 347 347 348 348 348 349 349 348 349 347 346 346 344 343 340 338 340 337 336 337 331 336 341 348 348 346 346 346
341 340 339 340 342 342 342 341 342 343 344 344 345 345 345 345 345 346 346 347 347 347 347 347 346 345 345 343 340 339 337 338 336 335 334 335 338 340 343 348 347 346 347
341 338 338 338 339 339 340 342 343 345 344 343 344 343 341 345 344 344 344 344 345 343 344 345 344 342 341 340 339 338 338 336 335 335 334 337 340 343 344 347 347 346 346
336 338 338 338 338 338 343 340 340 342 344 344 345 343 345 346 344 344 343 341 342 341 341 342 342 340 340 337 337 338 335 335 335 335 334 336 340 344 345 347 346 346 346
337 338 340 339 339 338 339 337 337 339 342 345 344 345 345 343 344 344 344 342 341 341 340 341 340 340 339 338 335 334 334 334 334 335 335 336 339 344 346 347 346 346 345
317 329 339 340 340 339 341 337 336 338 337 338 342 343 343 342 342 342 342 343 341 340 340 340 341 341 339 337 335 334 333 333 334 334 333 334 337 343 347 347 347 346 345
318 331 332 327 329 336 339 339 341 338 336 336 336 340 342 341 341 341 341 342 341 340 339 339 340 340 338 337 336 335 334 333 333 333 332 332 333 340 345 346 348 346 345
316 316 317 317 318 321 321 323 326 329 335 339 336 337 338 339 339 340 341 340 340 340 339 339 339 339 339 338 337 335 335 334 333 333 333 332 330 333 339 344 347 346 347
314 314 313 313 313 313 314 315 317 319 324 326 327 332 336 338 338 338 338 340 341 340 339 339 337 337 337 337 336 335 335 335 334 333 333 331 331 328 331 336 340 343 344
310 309 309 311 310 309 310 311 313 314 315 316 322 324 327 329 332 338 338 338 340 339 338 338 337 336 336 336 335 334 334 334 334 333 332 330 330 331 329 331 335 338 340
306 306 305 306 306 307 307 308 309 309 310 312 313 315 319 321 323 324 330 338 338 337 337 337 337 337 335 335 334 334 332 332 333 333 332 330 328 329 328 327 328 329 334
303 304 304 303 303 303 304 305 305 304 304 307 308 310 312 315 316 317 320 327 334 333 334 335 334 335 334 334 333 332 330 331 332 332 331 331 328 327 326 325 324 325 327
301 300 300 300 300 301 300 299 300 298 301 302 305 305 306 309 310 310 312 314 320 330 331 330 331 330 332 333 327 324 324 326 327 330 330 329 328 327 326 326 325 324 326
297 298 298 298 298 298 298 298 298 297 299 300 301 301 304 303 305 307 307 309 313 315 321 331 331 328 327 329 326 323 319 321 324 328 328 327 327 327 327 328 328 325 324
295 296 296 296 296 296 297 296 296 297 296 297 296 298 300 302 303 304 305 307 309 311 312 319 330 330 327 324 327 321 312 315 317 321 326 327 326 327 327 326 325 325 324
294 294 293 293 294 295 295 294 293 292 292 293 294 297 299 301 303 304 305 305 306 309 311 315 322 329 329 320 317 319 316 317 313 308 319 323 324 325 326 325 324 325 326
294 293 292 291 291 292 292 293 293 293 294 296 296 296 297 301 302 304 306 306 306 307 309 311 314 322 328 327 316 314 315 314 314 311 308 314 323 326 326 324 323 323 326
292 292 292 291 290 291 291 292 292 292 292 293 293 294 295 297 299 302 304 305 306 308 309 311 313 319 326 324 321 319 315 313 314 312 310 312 314 321 326 325 321 321 322

GFSSE_sfc_thetae_120.txt.gz
Theta_e
340 345 350 352 353 352 351 350 351 352 354 355 356 356 355 354 354 354 355 356 357 358 358 357 356 354 351 350 352 352 351 349 349 352 353 354 353 352 351 350 349 347 350
344 348 349 351 353 353 352 351 351 353 354 355 356 356 355 354 354 354 355 356 357 359 359 356 356 355 351 350 350 349 349 348 348 350 353 353 353 352 350 350 348 348 349
345 348 348 350 352 353 352 352 352 354 354 355 355 356 356 355 355 355 355 355 356 358 359 356 356 355 351 349 348 348 348 347 347 349 351 347 348 351 350 350 349 349 350
346 347 347 350 351 352 351 352 352 354 354 354 354 355 355 355 355 354 354 355 356 358 358 355 355 355 352 347 346 347 347 347 346 347 345 346 348 351 349 349 350 349 350
344 347 348 349 349 351 351 351 351 352 352 352 353 354 354 354 354 354 353 354 357 358 358 355 355 355 350 346 344 345 346 346 345 344 343 344 346 349 350 349 350 350 348
343 346 346 346 348 350 350 350 351 350 349 350 351 352 354 354 354 353 352 354 357 357 357 356 355 352 347 345 344 344 344 344 344 341 340 343 344 348 350 350 349 348 347
341 343 344 344 347 349 350 350 350 349 348 349 350 351 352 353 353 352 351 353 354 355 355 354 353 349 346 345 344 343 342 342 341 339 338 339 342 348 348 349 348 348 347
341 342 343 347 347 347 347 347 346 346 347 347 348 349 351 351 350 350 350 351 352 352 351 350 349 347 346 345 344 341 340 341 340 337 336 336 340 346 348 346 345 345 347
341 340 341 343 346 345 343 344 343 344 345 346 346 347 348 347 347 348 348 349 350 349 349 348 347 346 346 345 343 340 338 340 338 337 337 333 338 340 347 348 346 345 346
339 338 337 339 341 342 341 341 342 343 343 343 345 344 344 344 345 346 346 346 348 348 347 348 346 345 344 343 341 339 337 338 337 336 336 336 336 340 347 348 347 346 344
339 337 336 337 339 339 339 342 343 344 344 342 343 343 339 343 342 343 343 343 345 343 344 345 344 342 341 341 340 338 338 337 336 335 335 336 339 342 344 348 347 346 345
333 336 336 336 337 337 341 339 340 341 342 343 345 345 345 346 345 343 342 341 342 341 342 342 342 340 340 339 338 338 337 336 336 335 335 336 341 344 344 346 346 346 345
325 335 337 335 336 337 339 337 337 339 343 344 345 345 345 344 344 343 343 341 338 341 340 340 340 340 339 338 335 335 335 335 335 335 336 336 339 344 346 347 347 346 344
303 327 336 336 336 337 338 336 336 338 340 341 343 343 343 341 341 341 341 342 341 341 340 339 341 342 339 338 336 334 334 335 335 335 334 334 336 342 345 347 348 347 346
302 326 338 341 340 339 340 340 337 335 337 338 339 341 342 341 339 340 341 341 340 341 340 339 340 341 340 339 338 335 334 334 334 335 333 332 333 338 344 347 348 346 348
317 321 317 321 326 324 323 324 325 328 331 336 335 337 339 339 339 339 340 340 340 340 340 340 339 339 338 339 338 337 335 335 334 334 333 333 330 333 339 345 348 348 348
312 311 311 313 314 314 315 316 317 319 321 323 325 327 329 330 328 333 338 339 340 340 337 339 338 338 338 337 336 337 337 335 334 333 333 333 333 328 330 337 342 345 346
306 305 306 309 308 309 309 311 313 313 314 315 316 320 320 323 324 326 324 329 338 341 338 338 337 336 336 336 335 336 335 336 335 334 334 333 332 333 329 329 334 338 341
302 302 302 303 303 304 306 307 307 307 308 308 310 310 312 315 317 316 321 324 328 333 336 336 336 335 334 335 334 335 334 333 334 334 334 332 330 331 330 328 328 330 334
299 299 300 300 300 301 302 303 302 302 303 303 305 305 307 308 309 309 312 314 316 323 332 333 331 333 332 333 333 331 333 333 333 332 332 331 330 328 328 328 329 329 326
297 297 297 297 297 298 298 298 299 297 300 300 300 302 303 303 305 305 307 308 312 313 315 323 331 326 326 331 327 324 327 330 330 330 330 329 328 327 327 327 326 326 327
293 293 293 294 295 295 296 296 296 296 298 299 298 299 300 301 303 303 303 304 307 309 310 312 321 328 328 330 325 320 314 318 325 328 330 329 327 328 328 328 327 327 327
292 292 292 292 292 294 295 296 296 295 295 295 295 296 298 301 302 303 303 304 305 306 307 310 313 317 326 327 329 321 315 315 318 323 325 329 329 328 328 327 328 328 328
293 294 293 293 293 293 293 294 293 292 292 295 296 296 297 300 300 302 305 306 307 307 307 308 311 312 318 323 322 327 320 318 316 312 319 326 327 325 326 328 328 328 327
291 292 293 293 292 291 291 292 292 291 293 294 295 294 295 296 299 301 303 304 304 306 307 308 309 310 312 316 322 317 317 316 314 314 311 314 322 325 325 327 328 328 327
291 291 292 291 291 291 290 291 290 290 291 292 292 293 294 295 297 299 299 300 301 303 304 307 310 311 311 313 318 321 318 317 313 312 310 311 315 320 323 324 327 327 327

GFSSE_sfc_thetae_126.txt.gz
Theta_e
346 353 351 352 352 352 352 352 354 355 355 355 355 355 356 356 355 355 356 356 357 359 359 356 356 355 355 356 356 354 352 353 355 355 355 354 353 352 351 352 351 346 349
351 355 350 351 352 353 353 352 354 356 356 355 355 355 355 356 354 355 356 356 356 359 359 355 355 355 354 353 353 351 351 351 353 353 354 354 353 351 351 351 351 347 350
351 355 356 351 352 352 353 353 355 357 357 356 355 355 355 355 354 354 356 355 356 358 358 355 354 353 351 351 350 350 349 350 351 353 353 350 351 352 350 349 350 350 350
354 354 356 351 351 351 351 352 353 356 357 357 355 355 355 355 354 354 355 355 356 357 358 356 354 353 352 348 348 348 348 348 350 351 350 348 349 351 350 349 349 350 350
352 353 357 350 350 351 350 351 352 354 355 356 355 355 355 355 355 354 354 354 357 359 359 357 357 355 349 346 346 347 347 347 348 349 348 350 350 350 350 348 348 349 350
352 354 350 348 350 351 350 350 351 351 351 352 354 355 355 355 355 354 352 355 357 358 358 358 357 354 348 345 345 346 346 346 345 348 348 349 349 350 350 350 347 347 348
352 356 356 346 349 350 351 351 350 350 349 350 352 354 355 355 355 354 352 353 355 357 357 356 354 352 348 346 345 345 344 344 347 346 347 349 350 351 350 349 349 349 348
354 356 357 350 348 349 349 349 348 347 348 348 349 351 354 353 353 352 352 352 353 354 353 353 351 350 348 346 345 343 343 342 345 346 347 348 348 350 350 351 349 348 348
353 357 359 359 354 346 344 344 344 346 346 347 347 348 350 349 349 350 351 351 352 352 351 351 349 348 347 346 344 341 340 342 347 346 346 347 347 348 350 351 349 348 347
340 352 357 358 359 359 359 344 344 344 345 345 346 346 345 346 348 348 348 349 350 350 349 349 348 347 346 344 342 340 339 340 346 345 346 346 346 347 349 351 349 348 346
324 329 345 356 357 359 358 355 346 345 345 345 346 345 344 352 351 351 348 346 348 346 346 346 346 344 343 343 342 340 339 346 345 345 345 341 342 346 347 348 349 347 347
321 324 326 340 353 357 354 357 357 356 355 354 354 355 355 354 354 349 347 343 344 343 344 344 344 342 343 350 349 343 348 346 346 345 344 340 342 344 345 347 348 347 346
319 321 324 328 344 355 354 354 354 354 354 355 356 355 353 351 352 351 351 350 351 345 350 348 350 352 351 350 347 348 346 347 346 345 342 338 341 344 345 347 348 347 346
318 321 329 333 337 349 353 353 354 353 353 353 352 352 352 352 351 351 348 348 349 349 348 349 350 351 350 350 350 348 349 346 345 344 343 336 338 343 346 347 348 348 347
320 323 328 331 337 342 350 353 354 353 352 352 351 352 349 348 350 349 347 348 347 349 347 348 350 348 349 349 349 348 348 348 347 344 344 335 335 340 344 346 347 348 348
317 319 321 322 325 324 327 339 348 351 349 348 347 349 349 347 347 347 348 346 347 348 350 348 344 346 347 345 347 348 347 347 348 348 346 345 332 335 340 344 346 347 349
315 315 314 314 315 319 318 323 328 330 335 334 334 331 334 335 334 343 345 345 346 348 347 346 345 347 344 343 343 345 347 348 347 346 347 346 342 329 332 338 341 344 345
309 309 309 308 309 312 315 316 319 321 323 324 324 326 326 326 326 329 332 335 335 337 336 345 343 344 342 340 340 340 343 346 347 347 347 348 345 344 332 331 334 338 341
306 305 304 306 305 306 307 312 315 317 317 317 318 318 319 321 322 323 328 331 332 331 332 331 337 342 341 339 339 340 341 341 346 344 345 346 347 346 344 332 329 331 335
306 305 302 302 304 305 305 309 313 314 314 315 316 315 316 318 319 321 323 324 326 327 331 332 331 333 335 336 336 335 338 340 343 340 340 342 344 346 345 344 341 339 327
305 304 302 300 299 299 303 303 305 306 313 313 313 313 313 314 316 318 319 320 322 322 324 327 328 331 335 338 331 331 334 339 333 332 331 329 334 341 344 345 344 344 340
302 302 301 299 299 298 299 299 304 306 310 311 310 311 311 311 312 312 311 311 311 313 317 320 323 323 326 334 330 327 321 324 331 328 328 328 331 336 338 342 343 342 343
302 303 302 301 299 299 299 300 301 305 306 305 306 307 307 308 307 305 306 307 308 309 310 310 312 315 319 325 332 330 322 319 325 328 326 330 333 336 338 339 340 342 343
300 300 302 300 301 300 301 300 301 302 302 302 304 304 304 305 303 302 302 304 305 305 307 307 310 311 312 313 322 329 334 330 322 320 330 332 335 335 339 338 339 340 340
296 296 297 300 299 299 299 297 298 298 300 302 302 301 301 301 302 301 300 301 301 302 303 303 304 305 308 311 312 317 322 329 330 326 320 326 332 334 336 339 340 340 340
298 298 297 297 297 298 295 296 297 296 295 296 296 296 297 297 298 298 298 299 300 300 300 301 302 303 305 307 309 313 313 315 321 323 323 324 324 330 334 336 338 339 340

GFSSE_sfc_thetae_129.txt.gz
Theta_e
348 352 352 353 354 354 354 355 354 354 355 355 356 356 356 356 356 356 356 356 358 358 358 356 355 355 356 355 355 355 354 355 355 355 355 353 352 352 352 352 350 345 352
351 353 350 352 353 354 354 354 354 354 355 355 356 356 356 356 355 356 356 356 358 359 358 355 356 355 356 356 354 352 352 353 353 354 355 354 352 352 350 351 349 345 352
352 356 354 350 352 353 354 355 355 356 356 356 356 356 356 355 355 355 355 356 357 360 359 355 355 354 353 353 351 350 351 352 352 352 354 350 349 351 349 349 350 350 351
354 357 354 350 351 352 353 354 355 357 357 356 356 356 356 355 355 355 355 355 356 359 358 354 354 353 352 350 349 349 349 350 351 351 350 350 348 351 349 349 350 350 350
351 353 357 351 350 351 352 353 354 356 356 355 355 356 356 355 355 355 355 354 356 358 357 355 355 355 349 348 348 348 348 348 349 348 348 348 349 350 350 349 349 349 350
350 355 351 350 350 350 351 352 352 353 353 353 354 355 356 356 355 354 353 355 358 358 359 358 357 354 348 346 346 347 346 347 346 347 344 348 350 351 350 350 349 349 349
350 355 358 349 350 351 351 351 351 351 351 352 353 354 355 355 355 354 352 353 356 357 358 357 356 353 349 346 346 345 345 345 346 346 343 347 351 351 351 349 349 348 349
350 355 358 350 350 350 350 350 349 349 349 350 352 353 354 354 353 353 352 352 353 354 354 354 352 351 350 347 345 344 343 343 343 345 342 345 349 352 351 351 349 347 348
346 353 359 361 355 348 347 347 346 347 348 348 348 350 352 351 351 352 351 351 352 352 352 352 351 349 349 347 345 342 341 342 344 343 342 344 349 352 351 352 350 348 347
330 338 348 355 359 360 360 345 346 346 346 346 347 347 347 349 349 349 349 350 351 351 349 349 349 348 347 346 344 342 340 341 344 345 343 344 348 351 351 353 350 348 347
326 329 334 341 348 356 358 356 347 346 347 346 346 345 345 350 350 351 349 347 348 347 345 346 345 346 345 344 343 341 340 344 344 343 342 342 348 349 350 351 350 348 347
322 325 327 337 341 348 348 353 358 357 354 354 353 353 354 353 352 349 346 344 346 345 345 344 343 342 343 347 345 342 346 345 344 342 341 342 346 348 349 350 349 348 347
323 326 331 335 345 343 346 347 349 350 353 354 357 356 357 356 354 355 352 351 351 346 350 347 348 348 347 346 345 349 347 345 343 342 340 340 345 346 346 348 348 349 347
322 324 327 329 333 341 345 346 346 346 347 348 351 355 355 354 352 353 352 353 352 350 349 351 350 350 349 350 348 351 348 345 343 341 341 337 341 346 347 347 348 349 347
318 321 321 323 325 330 334 335 349 352 351 352 353 354 353 353 353 354 352 352 352 353 352 349 349 348 346 346 347 347 348 348 347 344 343 335 337 342 346 347 348 348 348
315 316 317 318 321 324 324 324 327 330 334 341 338 334 335 338 347 349 349 349 349 350 349 350 350 349 348 348 346 346 346 347 350 348 343 342 333 336 341 346 349 350 350
313 314 313 314 315 318 323 319 321 321 326 325 328 327 328 328 328 330 336 343 344 346 347 349 348 348 347 347 345 347 349 348 347 348 348 344 340 331 334 339 343 346 347
311 310 311 312 313 315 315 320 317 317 319 320 322 321 322 323 325 325 328 331 335 334 336 341 343 338 341 345 344 345 344 348 348 347 348 348 346 344 333 333 336 340 343
312 311 310 309 309 313 315 315 316 318 315 317 318 317 320 321 322 323 326 330 332 331 333 334 335 336 339 337 337 342 342 342 345 348 346 345 348 344 346 332 330 332 336
311 310 308 308 307 309 312 314 314 312 316 316 314 315 317 318 320 321 323 325 325 325 327 330 333 335 333 333 335 335 337 341 344 344 342 342 341 338 340 341 340 336 328
308 307 307 306 307 306 305 307 310 309 310 311 313 314 315 316 316 316 315 317 317 317 319 322 324 325 326 333 331 334 333 334 338 334 331 331 331 330 334 338 341 343 339
307 307 307 306 306 307 307 307 307 309 311 309 309 312 312 313 311 309 308 309 310 310 312 314 314 315 319 325 327 324 322 327 331 332 330 330 330 327 329 333 337 342 344
305 305 306 306 306 306 307 307 309 309 309 308 308 306 308 309 308 306 306 306 306 308 307 309 310 310 310 316 321 323 319 317 324 333 330 331 329 328 328 329 333 336 340
303 304 303 304 304 304 305 304 304 304 303 306 306 307 306 307 307 305 304 304 303 304 304 305 307 306 307 306 313 318 323 324 317 320 331 331 332 331 330 329 331 333 336
303 303 303 303 303 302 301 301 300 300 301 302 303 304 304 305 304 303 302 302 301 302 302 302 303 303 305 304 306 308 314 316 319 320 317 325 331 333 333 334 336 337 339
301 301 303 302 301 301 301 300 298 297 296 296 295 296 298 300 301 300 300 300 299 299 300 300 301 301 303 304 305 307 308 308 311 313 315 319 322 327 333 335 338 338 339

GFSSE_sfc_thetae_132.txt.gz
Theta_e
347 350 352 354 354 355 355 353 353 354 354 356 355 355 356 356 356 356 356 357 358 358 358 357 357 356 354 354 355 354 355 354 354 355 354 354 353 352 352 351 350 347 353
351 352 350 352 354 355 355 354 353 354 355 356 356 356 356 356 355 356 356 356 357 359 358 356 356 356 357 358 353 352 353 352 352 354 354 354 353 352 350 350 350 349 352
352 353 351 351 353 354 355 355 354 355 355 356 356 356 356 355 355 356 355 355 358 358 358 356 355 355 355 353 351 350 351 351 351 353 353 347 348 352 350 351 348 351 353
354 353 352 351 352 353 354 355 354 356 356 355 356 356 356 355 355 355 355 354 356 359 359 355 355 355 353 350 348 349 349 349 350 350 347 349 346 352 350 351 350 351 352
351 354 351 350 350 351 352 354 354 355 354 354 355 356 356 356 355 355 354 354 356 359 359 355 356 354 349 347 347 347 348 347 347 347 344 347 345 349 350 351 350 350 350
355 356 349 349 349 350 351 352 354 354 353 353 353 355 356 356 355 355 353 354 356 358 358 357 356 352 347 346 346 346 346 345 345 342 344 346 347 351 350 350 349 348 348
352 357 352 349 350 350 350 351 351 351 352 352 353 354 355 355 354 353 353 353 355 356 358 356 355 352 347 345 345 345 344 343 342 339 343 345 348 352 350 351 349 349 348
352 358 356 351 350 350 350 349 348 348 350 351 352 353 354 354 353 352 352 352 353 354 354 354 353 352 350 346 345 343 342 342 340 339 340 345 347 352 351 350 349 347 348
343 352 360 357 353 349 347 347 347 347 348 348 349 350 352 351 351 352 351 351 351 351 352 352 351 349 350 348 345 342 340 341 339 339 341 346 348 352 353 351 350 347 347
338 338 338 346 354 358 353 345 346 346 346 347 347 347 347 349 350 350 350 350 350 350 350 348 348 349 348 346 344 342 340 340 338 338 339 344 349 353 353 352 350 348 347
327 332 337 339 341 341 351 353 346 347 347 346 346 345 343 347 349 350 349 348 348 346 347 347 347 345 345 345 344 342 340 339 338 338 339 343 349 354 353 352 349 348 347
323 327 330 332 332 340 344 351 356 355 351 350 350 350 348 349 349 347 346 344 344 344 345 345 345 343 343 348 346 342 341 340 339 339 339 342 349 353 353 351 349 348 346
322 324 323 324 326 331 335 343 344 349 354 354 353 352 353 353 352 350 350 347 346 344 347 344 345 345 345 345 342 342 341 341 341 340 339 340 347 352 352 351 349 349 346
318 318 318 320 322 325 329 328 331 335 341 348 347 347 349 348 349 347 348 347 345 345 345 345 344 344 343 342 342 341 342 342 341 341 339 337 343 349 352 351 350 348 347
314 315 315 317 318 322 324 324 323 326 329 332 333 333 335 341 343 345 345 345 343 343 343 342 343 343 343 343 343 343 343 344 342 340 338 335 338 344 348 350 349 349 348
313 313 314 314 315 317 320 321 320 322 322 325 324 323 326 328 328 329 334 342 341 340 341 341 340 340 341 342 342 343 343 343 343 342 340 336 333 338 343 347 349 350 350
312 311 311 312 312 315 315 319 317 317 319 320 320 320 322 322 323 325 328 331 334 336 334 333 336 338 338 339 339 341 342 342 342 342 343 341 334 331 335 341 344 346 348
311 311 310 310 310 313 315 316 317 315 315 317 316 317 319 320 321 321 324 329 332 330 332 332 332 333 333 334 335 336 337 337 341 341 341 341 340 338 332 333 338 341 344
309 309 308 309 308 309 312 316 315 314 315 315 314 314 316 316 317 318 320 322 323 325 328 330 329 330 330 331 331 332 330 332 325 329 336 340 342 338 338 331 329 330 335
309 309 308 308 308 309 308 310 313 313 313 312 313 313 314 314 313 312 312 313 313 314 315 316 317 320 322 324 328 330 330 332 329 333 332 338 339 332 330 333 333 331 327
308 307 307 307 307 307 307 306 306 307 310 309 308 309 310 310 309 309 308 308 309 309 310 311 311 311 312 316 316 320 326 330 332 333 334 333 329 329 328 326 328 335 335
305 306 306 305 306 305 305 307 308 308 310 309 309 308 308 308 308 305 305 305 304 306 306 307 308 306 308 311 310 312 313 317 327 331 332 330 326 325 326 325 327 329 334
303 303 303 303 304 303 303 305 305 307 308 306 306 306 307 306 306 304 303 303 302 303 303 303 304 303 302 306 308 310 309 308 312 318 326 331 329 327 327 327 328 331 333
302 304 303 304 302 302 302 300 300 300 298 301 302 301 304 305 303 302 301 301 300 301 300 300 302 301 303 300 304 309 308 309 309 308 316 321 329 329 327 327 326 327 329
302 302 303 303 301 301 301 299 298 297 297 298 298 298 298 299 300 299 298 299 298 298 298 299 299 300 301 301 302 303 305 307 307 308 306 311 317 323 328 329 329 328 328
301 301 301 300 299 299 298 298 296 295 295 295 294 294 294 295 295 295 295 296 296 296 296 296 298 298 299 300 302 303 302 303 304 305 304 305 307 311 316 322 327 330 331

GFSSE_sfc_thetae_135.txt.gz
Theta_e
345 350 352 354 354 353 352 351 351 352 353 354 355 355 355 355 355 355 356 356 358 359 358 356 357 356 354 354 354 353 353 352 352 353 353 354 353 352 352 352 350 349 353
347 350 350 352 354 354 353 351 351 352 354 355 355 355 355 354 354 355 355 356 357 358 356 355 356 355 356 356 351 350 351 350 351 352 353 353 353 351 350 349 349 351 352
347 349 351 351 353 354 354 352 352 353 355 355 355 354 355 354 354 354 354 354 356 358 356 355 355 356 357 353 348 348 349 349 350 351 352 347 346 352 349 349 352 352 352
348 348 349 351 351 353 353 352 352 354 354 354 355 354 354 354 354 354 353 353 356 358 357 355 355 354 353 349 347 347 347 347 348 347 348 349 345 350 349 351 352 353 352
348 350 349 349 350 351 352 352 352 353 352 352 354 355 354 354 354 354 352 352 355 359 358 354 355 354 348 345 345 345 345 345 345 346 343 346 344 349 350 351 351 352 350
349 348 346 347 349 350 351 352 352 352 350 351 352 354 355 355 354 353 352 352 355 357 358 357 355 350 345 344 344 344 344 343 343 341 343 344 343 352 350 350 348 348 348
349 348 348 346 348 349 350 350 350 351 350 351 351 352 353 354 354 352 351 352 353 355 356 355 353 350 345 344 344 343 342 341 340 337 340 346 345 351 351 350 348 347 348
350 349 349 349 349 348 348 347 347 347 349 350 350 351 352 353 352 351 350 350 351 352 353 353 351 351 348 344 343 341 341 340 339 336 338 340 346 350 352 350 348 346 347
327 333 341 347 349 347 345 345 345 345 346 347 348 349 350 349 349 350 350 349 350 350 350 351 350 349 349 347 343 341 339 339 337 336 337 341 348 350 353 350 348 347 347
327 326 326 327 332 336 346 343 344 344 344 345 345 346 346 348 349 349 348 348 348 348 348 349 348 348 347 346 344 341 339 339 337 336 336 337 347 350 352 349 348 347 347
321 319 320 321 323 327 335 344 345 346 345 344 345 344 342 344 347 349 347 347 346 345 344 346 346 345 344 344 343 341 340 339 337 336 334 338 347 352 351 349 348 346 346
314 315 316 318 320 323 330 330 333 341 346 344 345 343 342 342 343 346 346 343 345 343 343 343 344 343 342 346 345 342 342 340 338 336 336 338 347 353 352 349 347 346 346
312 312 313 314 316 319 321 324 326 331 335 338 340 344 344 345 344 345 344 343 343 342 344 342 344 344 345 344 346 344 343 341 339 337 338 337 346 352 353 351 348 347 346
310 310 311 311 312 315 319 320 322 325 328 329 328 330 336 339 340 341 342 340 339 342 340 342 342 343 342 344 343 342 340 340 339 338 338 335 342 350 353 352 350 348 346
307 308 309 310 310 313 314 316 318 319 323 324 322 324 325 326 327 329 333 338 337 337 337 337 339 340 341 341 341 340 339 339 340 339 339 333 338 345 350 352 352 351 348
307 306 306 306 307 310 310 313 313 316 319 320 319 320 322 321 321 323 326 331 333 334 331 332 333 334 334 335 337 339 340 341 341 341 341 335 333 339 343 348 350 350 350
306 305 305 306 305 306 309 311 311 311 314 314 316 317 318 318 319 320 323 326 330 329 328 329 329 330 331 334 335 337 336 336 338 334 330 334 335 331 336 341 344 346 348
304 304 305 306 304 304 304 310 309 311 310 310 311 314 314 314 313 315 315 314 316 316 320 320 321 323 325 327 328 332 332 333 334 333 331 331 338 337 333 330 335 341 343
302 303 303 303 303 303 304 305 308 308 307 307 309 309 310 310 310 310 310 311 312 312 312 312 312 312 314 317 320 324 329 328 332 332 328 329 331 334 335 333 329 329 332
301 302 302 303 302 302 303 303 304 305 305 305 304 306 308 307 307 306 307 307 307 308 308 308 307 309 309 311 314 316 321 327 328 325 325 328 329 332 330 331 329 328 327
301 300 300 300 300 300 300 301 301 300 303 302 303 305 305 305 304 303 304 303 304 304 305 305 305 304 306 306 308 308 312 317 324 326 328 329 329 331 329 331 328 327 327
298 299 299 298 298 298 299 299 299 300 302 303 303 303 304 303 302 301 300 301 302 302 303 302 302 301 303 304 304 304 305 310 311 317 323 328 329 328 329 329 328 327 328
297 297 298 297 297 298 297 297 298 299 299 298 297 298 299 300 299 297 298 298 299 300 299 299 300 300 298 302 304 304 303 301 304 309 311 316 320 324 325 326 327 328 327
296 297 297 297 296 297 296 295 293 293 292 294 294 295 295 297 295 295 295 296 297 298 297 297 299 299 299 298 302 305 305 305 303 301 307 311 312 316 320 323 327 327 327
296 295 296 296 295 295 294 293 292 291 292 293 293 292 292 294 294 294 293 294 295 295 296 296 296 297 298 298 299 301 302 304 305 303 301 303 307 310 311 314 316 325 327
294 294 294 293 293 293 292 292 290 290 290 290 290 291 292 292 293 293 294 294 294 294 294 295 295 296 297 297 297 298 298 298 299 301 300 299 301 304 308 311 314 315 323